Time,TemperatureF,DewpointF,PressureIn,WindDirection,WindDirectionDegrees,WindSpeedMPH,WindSpeedGustMPH,Humidity,HourlyPrecipIn,Conditions,Clouds,dailyrainin,SolarRadiationWatts/m^2,SoftwareType,DateUTC
2013-03-12 00:00:00,33.0,31.2,29.42,NW,319,0.0,4.0,93,0.00,,,0.00,0,Wunderground v.1.15,2013-03-12 04:00:00,
2013-03-12 00:01:00,32.9,31.1,29.42,SW,217,0.0,4.0,93,0.00,,,0.00,0,Wunderground v.1.15,2013-03-12 04:01:00,
2013-03-12 00:02:00,32.9,31.1,29.43,SW,217,0.0,4.0,93,0.00,,,0.00,0,Wunderground v.1.15,2013-03-12 04:02:00,
2013-03-12 00:03:00,32.9,31.1,29.43,NW,313,0.0,4.0,93,0.00,,,0.00,0,Wunderground v.1.15,2013-03-12 04:03:00,
2013-03-12 00:05:00,32.9,31.1,29.43,NW,310,0.0,4.0,93,0.00,,,0.00,0,Wunderground v.1.15,2013-03-12 04:05:00,
2013-03-12 00:09:00,32.8,31.0,29.43,SSW,208,0.0,4.0,93,0.00,,,0.00,0,Wunderground v.1.15,2013-03-12 04:09:00,
2013-03-12 00:10:00,32.8,31.0,29.43,NNW,343,0.0,4.0,93,0.00,,,0.00,0,Wunderground v.1.15,2013-03-12 04:10:00,
2013-03-12 00:13:00,32.7,30.9,29.43,SW,225,0.0,4.0,93,0.00,,,0.00,0,Wunderground v.1.15,2013-03-12 04:13:00,
2013-03-12 00:14:00,32.7,30.9,29.44,SW,225,0.0,4.0,93,0.00,,,0.00,0,Wunderground v.1.15,2013-03-12 04:14:00,
2013-03-12 00:19:00,32.6,30.8,29.44,NNW,336,0.0,4.0,93,0.00,,,0.00,0,Wunderground v.1.15,2013-03-12 04:19:00,
2013-03-12 00:20:00,32.6,30.8,29.44,SSW,211,0.0,4.0,93,0.00,,,0.00,0,Wunderground v.1.15,2013-03-12 04:20:00,
2013-03-12 00:22:00,32.6,30.8,29.44,WNW,299,0.0,4.0,93,0.00,,,0.00,0,Wunderground v.1.15,2013-03-12 04:22:00,
2013-03-12 00:23:00,32.6,30.8,29.44,WNW,295,0.0,4.0,93,0.00,,,0.00,0,Wunderground v.1.15,2013-03-12 04:23:00,
2013-03-12 00:26:00,32.5,30.7,29.44,SSW,205,1.0,4.0,93,0.00,,,0.00,0,Wunderground v.1.15,2013-03-12 04:26:00,
2013-03-12 00:29:00,32.5,30.7,29.44,SW,218,1.0,4.0,93,0.00,,,0.00,0,Wunderground v.1.15,2013-03-12 04:29:00,
2013-03-12 00:31:00,32.5,30.7,29.44,WNW,300,1.0,4.0,93,0.00,,,0.00,0,Wunderground v.1.15,2013-03-12 04:31:00,
2013-03-12 00:33:00,32.5,30.7,29.44,SW,223,1.0,4.0,93,0.00,,,0.00,0,Wunderground v.1.15,2013-03-12 04:33:00,
2013-03-12 00:35:00,32.5,30.7,29.44,SW,224,1.0,4.0,93,0.00,,,0.00,0,Wunderground v.1.15,2013-03-12 04:35:00,
2013-03-12 00:37:00,32.5,30.7,29.44,SW,216,0.0,4.0,93,0.00,,,0.00,0,Wunderground v.1.15,2013-03-12 04:37:00,
2013-03-12 00:41:00,32.5,30.7,29.45,SW,230,0.0,4.0,93,0.00,,,0.00,0,Wunderground v.1.15,2013-03-12 04:41:00,
2013-03-12 00:42:00,32.5,30.7,29.45,SW,230,0.0,4.0,93,0.00,,,0.00,0,Wunderground v.1.15,2013-03-12 04:42:00,
2013-03-12 00:43:00,32.5,30.7,29.45,NNW,338,0.0,4.0,93,0.00,,,0.00,0,Wunderground v.1.15,2013-03-12 04:43:00,
2013-03-12 00:45:00,32.5,30.7,29.45,NW,315,0.0,4.0,93,0.00,,,0.00,0,Wunderground v.1.15,2013-03-12 04:45:00,
2013-03-12 00:47:00,32.5,30.7,29.45,NW,314,0.0,4.0,93,0.00,,,0.00,0,Wunderground v.1.15,2013-03-12 04:47:00,
2013-03-12 00:48:00,32.5,30.7,29.45,NW,314,0.0,4.0,93,0.00,,,0.00,0,Wunderground v.1.15,2013-03-12 04:48:00,
2013-03-12 00:50:00,32.5,30.7,29.45,WSW,244,0.0,4.0,93,0.00,,,0.00,0,Wunderground v.1.15,2013-03-12 04:50:00,
2013-03-12 00:53:00,32.5,31.0,29.45,WSW,243,0.0,4.0,94,0.00,,,0.00,0,Wunderground v.1.15,2013-03-12 04:53:00,
2013-03-12 00:56:00,32.5,31.0,29.45,SW,218,0.0,4.0,94,0.00,,,0.00,0,Wunderground v.1.15,2013-03-12 04:56:00,
2013-03-12 00:57:00,32.5,31.0,29.45,SW,225,0.0,4.0,94,0.00,,,0.00,0,Wunderground v.1.15,2013-03-12 04:57:00,
2013-03-12 01:01:00,32.4,30.9,29.45,SW,230,0.0,4.0,94,0.00,,,0.00,0,Wunderground v.1.15,2013-03-12 05:01:00,
2013-03-12 01:05:00,32.4,30.9,29.45,SW,233,0.0,4.0,94,0.00,,,0.00,0,Wunderground v.1.15,2013-03-12 05:05:00,
2013-03-12 01:06:00,32.4,30.9,29.45,SW,236,0.0,4.0,94,0.00,,,0.00,0,Wunderground v.1.15,2013-03-12 05:06:00,
2013-03-12 01:07:00,32.5,31.0,29.45,SSW,211,0.0,4.0,94,0.00,,,0.00,0,Wunderground v.1.15,2013-03-12 05:07:00,
2013-03-12 01:09:00,32.4,30.9,29.45,SW,217,0.0,4.0,94,0.00,,,0.00,0,Wunderground v.1.15,2013-03-12 05:09:00,
2013-03-12 01:14:00,32.4,30.9,29.45,WSW,251,0.0,4.0,94,0.00,,,0.00,0,Wunderground v.1.15,2013-03-12 05:14:00,
2013-03-12 01:16:00,32.3,30.8,29.45,North,11,0.0,4.0,94,0.00,,,0.00,0,Wunderground v.1.15,2013-03-12 05:16:00,
2013-03-12 01:17:00,32.3,30.8,29.45,WNW,285,0.0,4.0,94,0.00,,,0.00,0,Wunderground v.1.15,2013-03-12 05:17:00,
2013-03-12 01:21:00,32.0,30.5,29.45,NW,316,0.0,4.0,94,0.00,,,0.00,0,Wunderground v.1.15,2013-03-12 05:21:00,
2013-03-12 01:22:00,32.0,30.5,29.45,NNW,329,0.0,4.0,94,0.00,,,0.00,0,Wunderground v.1.15,2013-03-12 05:22:00,
2013-03-12 01:24:00,31.8,30.3,29.45,NW,325,1.0,4.0,94,0.00,,,0.00,0,Wunderground v.1.15,2013-03-12 05:24:00,
2013-03-12 01:27:00,31.7,30.2,29.45,NW,325,1.0,7.0,94,0.00,,,0.00,0,Wunderground v.1.15,2013-03-12 05:27:00,
2013-03-12 01:28:00,31.6,30.1,29.45,North,355,1.0,7.0,94,0.00,,,0.00,0,Wunderground v.1.15,2013-03-12 05:28:00,
2013-03-12 01:30:00,31.5,30.0,29.45,North,355,2.0,4.0,94,0.00,,,0.00,0,Wunderground v.1.15,2013-03-12 05:30:00,
2013-03-12 01:35:00,31.2,29.7,29.45,NW,325,2.0,4.0,94,0.00,,,0.00,0,Wunderground v.1.15,2013-03-12 05:35:00,
2013-03-12 01:36:00,31.2,29.7,29.45,North,355,2.0,4.0,94,0.00,,,0.00,0,Wunderground v.1.15,2013-03-12 05:36:00,
2013-03-12 01:40:00,31.0,29.5,29.45,SSE,166,1.0,4.0,94,0.00,,,0.01,0,Wunderground v.1.15,2013-03-12 05:40:00,
2013-03-12 01:43:00,30.9,29.6,29.46,West,273,1.0,4.0,95,0.00,,,0.01,0,Wunderground v.1.15,2013-03-12 05:43:00,
2013-03-12 01:44:00,30.9,29.6,29.46,NW,315,0.0,4.0,95,0.00,,,0.01,0,Wunderground v.1.15,2013-03-12 05:44:00,
2013-03-12 01:45:00,30.9,29.6,29.46,NW,309,0.0,4.0,95,0.00,,,0.01,0,Wunderground v.1.15,2013-03-12 05:45:00,
2013-03-12 01:48:00,30.8,29.5,29.46,NNW,330,0.0,4.0,95,0.00,,,0.01,0,Wunderground v.1.15,2013-03-12 05:48:00,
2013-03-12 01:50:00,30.8,29.5,29.46,NNE,15,0.0,4.0,95,0.00,,,0.01,0,Wunderground v.1.15,2013-03-12 05:50:00,
2013-03-12 01:52:00,30.7,29.4,29.46,North,5,0.0,4.0,95,0.00,,,0.01,0,Wunderground v.1.15,2013-03-12 05:52:00,
2013-03-12 01:54:00,30.6,29.3,29.46,North,355,0.0,4.0,95,0.00,,,0.01,0,Wunderground v.1.15,2013-03-12 05:54:00,
2013-03-12 01:56:00,30.5,29.2,29.47,NNE,24,0.0,4.0,95,0.00,,,0.01,0,Wunderground v.1.15,2013-03-12 05:56:00,
2013-03-12 02:00:00,30.4,29.1,29.47,WNW,298,0.0,4.0,95,0.00,,,0.01,0,Wunderground v.1.15,2013-03-12 06:00:00,
2013-03-12 02:02:00,30.3,29.0,29.47,SW,231,0.0,4.0,95,0.00,,,0.01,0,Wunderground v.1.15,2013-03-12 06:02:00,
2013-03-12 02:03:00,30.3,29.0,29.47,SW,231,0.0,4.0,95,0.00,,,0.01,0,Wunderground v.1.15,2013-03-12 06:03:00,
2013-03-12 02:08:00,30.2,28.9,29.47,ESE,113,0.0,4.0,95,0.00,,,0.01,0,Wunderground v.1.15,2013-03-12 06:08:00,
2013-03-12 02:09:00,30.2,28.9,29.47,SSW,196,0.0,4.0,95,0.00,,,0.01,0,Wunderground v.1.15,2013-03-12 06:09:00,
2013-03-12 02:12:00,30.2,28.9,29.47,South,169,0.0,4.0,95,0.00,,,0.01,0,Wunderground v.1.15,2013-03-12 06:12:00,
2013-03-12 02:13:00,30.2,28.9,29.47,SSW,209,0.0,4.0,95,0.00,,,0.01,0,Wunderground v.1.15,2013-03-12 06:13:00,
2013-03-12 02:14:00,30.2,28.9,29.47,SW,232,0.0,4.0,95,0.00,,,0.01,0,Wunderground v.1.15,2013-03-12 06:14:00,
2013-03-12 02:17:00,30.1,28.8,29.47,SSW,209,0.0,4.0,95,0.00,,,0.01,0,Wunderground v.1.15,2013-03-12 06:17:00,
2013-03-12 02:19:00,30.1,28.8,29.47,South,189,0.0,4.0,95,0.00,,,0.01,0,Wunderground v.1.15,2013-03-12 06:19:00,
2013-03-12 02:21:00,30.1,28.8,29.48,South,184,0.0,4.0,95,0.00,,,0.01,0,Wunderground v.1.15,2013-03-12 06:21:00,
2013-03-12 02:23:00,30.0,28.7,29.48,SW,216,0.0,4.0,95,0.00,,,0.01,0,Wunderground v.1.15,2013-03-12 06:23:00,
2013-03-12 02:24:00,29.9,28.6,29.48,South,181,1.0,4.0,95,0.00,,,0.01,0,Wunderground v.1.15,2013-03-12 06:24:00,
2013-03-12 02:25:00,29.8,28.5,29.48,ESE,117,1.0,4.0,95,0.00,,,0.01,0,Wunderground v.1.15,2013-03-12 06:25:00,
2013-03-12 02:27:00,29.7,28.4,29.48,SW,230,1.0,4.0,95,0.00,,,0.01,0,Wunderground v.1.15,2013-03-12 06:27:00,
2013-03-12 02:29:00,29.6,28.3,29.48,South,173,1.0,4.0,95,0.00,,,0.01,0,Wunderground v.1.15,2013-03-12 06:29:00,
2013-03-12 02:31:00,29.5,28.2,29.48,NW,323,1.0,4.0,95,0.00,,,0.01,0,Wunderground v.1.15,2013-03-12 06:31:00,
2013-03-12 02:32:00,29.5,28.2,29.48,SSE,150,1.0,4.0,95,0.00,,,0.01,0,Wunderground v.1.15,2013-03-12 06:32:00,
2013-03-12 02:33:00,29.4,28.1,29.48,SW,232,1.0,4.0,95,0.00,,,0.01,0,Wunderground v.1.15,2013-03-12 06:33:00,
2013-03-12 02:35:00,29.4,28.1,29.48,SE,144,0.0,4.0,95,0.00,,,0.01,0,Wunderground v.1.15,2013-03-12 06:35:00,
2013-03-12 02:40:00,29.3,28.0,29.48,SSW,212,0.0,4.0,95,0.00,,,0.01,0,Wunderground v.1.15,2013-03-12 06:40:00,
2013-03-12 02:41:00,29.2,27.9,29.48,SSW,206,1.0,4.0,95,0.00,,,0.01,0,Wunderground v.1.15,2013-03-12 06:41:00,
2013-03-12 02:43:00,29.2,27.9,29.48,South,189,1.0,4.0,95,0.00,,,0.01,0,Wunderground v.1.15,2013-03-12 06:43:00,
2013-03-12 02:45:00,29.2,27.9,29.49,South,189,1.0,4.0,95,0.00,,,0.01,0,Wunderground v.1.15,2013-03-12 06:45:00,
2013-03-12 02:46:00,29.2,27.9,29.48,South,189,1.0,4.0,95,0.00,,,0.01,0,Wunderground v.1.15,2013-03-12 06:46:00,
2013-03-12 02:49:00,29.2,27.9,29.49,South,189,0.0,4.0,95,0.00,,,0.01,0,Wunderground v.1.15,2013-03-12 06:49:00,
2013-03-12 02:50:00,29.2,27.9,29.48,South,189,0.0,4.0,95,0.00,,,0.01,0,Wunderground v.1.15,2013-03-12 06:50:00,
2013-03-12 02:52:00,29.2,27.9,29.49,South,189,0.0,4.0,95,0.00,,,0.01,0,Wunderground v.1.15,2013-03-12 06:52:00,
2013-03-12 02:53:00,29.2,27.9,29.49,South,189,0.0,4.0,95,0.00,,,0.01,0,Wunderground v.1.15,2013-03-12 06:53:00,
2013-03-12 02:55:00,29.2,27.9,29.49,NW,320,0.0,4.0,95,0.00,,,0.01,0,Wunderground v.1.15,2013-03-12 06:55:00,
2013-03-12 02:58:00,29.1,27.8,29.49,West,279,0.0,4.0,95,0.00,,,0.01,0,Wunderground v.1.15,2013-03-12 06:58:00,
2013-03-12 03:00:00,29.1,27.8,29.49,West,279,0.0,4.0,95,0.00,,,0.01,0,Wunderground v.1.15,2013-03-12 07:00:00,
2013-03-12 03:02:00,29.0,27.7,29.50,WSW,241,0.0,4.0,95,0.00,,,0.01,0,Wunderground v.1.15,2013-03-12 07:02:00,
2013-03-12 03:05:00,29.0,27.7,29.50,North,360,0.0,4.0,95,0.00,,,0.01,0,Wunderground v.1.15,2013-03-12 07:05:00,
2013-03-12 03:07:00,29.0,27.7,29.50,North,11,0.0,4.0,95,0.00,,,0.01,0,Wunderground v.1.15,2013-03-12 07:07:00,
2013-03-12 03:09:00,28.9,27.6,29.50,South,174,0.0,4.0,95,0.00,,,0.01,0,Wunderground v.1.15,2013-03-12 07:09:00,
2013-03-12 03:10:00,28.9,27.6,29.50,SW,229,0.0,4.0,95,0.00,,,0.01,0,Wunderground v.1.15,2013-03-12 07:10:00,
2013-03-12 03:12:00,28.9,27.6,29.50,WNW,285,0.0,4.0,95,0.00,,,0.01,0,Wunderground v.1.15,2013-03-12 07:12:00,
2013-03-12 03:14:00,28.9,27.6,29.50,WSW,248,0.0,4.0,95,0.00,,,0.01,0,Wunderground v.1.15,2013-03-12 07:14:00,
2013-03-12 03:16:00,28.8,27.5,29.51,WSW,248,0.0,4.0,95,0.00,,,0.01,0,Wunderground v.1.15,2013-03-12 07:16:00,
2013-03-12 03:17:00,28.8,27.5,29.51,WSW,248,0.0,4.0,95,0.00,,,0.01,0,Wunderground v.1.15,2013-03-12 07:17:00,
2013-03-12 03:19:00,28.8,27.5,29.51,WSW,248,0.0,4.0,95,0.00,,,0.01,0,Wunderground v.1.15,2013-03-12 07:19:00,
2013-03-12 03:20:00,28.8,27.5,29.51,WSW,248,0.0,4.0,95,0.00,,,0.01,0,Wunderground v.1.15,2013-03-12 07:20:00,
2013-03-12 03:23:00,28.8,27.5,29.51,WSW,248,0.0,4.0,95,0.00,,,0.01,0,Wunderground v.1.15,2013-03-12 07:23:00,
2013-03-12 03:24:00,28.9,27.6,29.51,WSW,248,0.0,4.0,95,0.00,,,0.01,0,Wunderground v.1.15,2013-03-12 07:24:00,
2013-03-12 03:26:00,28.9,27.6,29.51,WSW,248,0.0,4.0,95,0.00,,,0.01,0,Wunderground v.1.15,2013-03-12 07:26:00,
2013-03-12 03:30:00,29.0,28.0,29.51,South,181,0.0,4.0,96,0.00,,,0.01,0,Wunderground v.1.15,2013-03-12 07:30:00,
2013-03-12 03:31:00,29.1,28.1,29.51,SSE,163,1.0,4.0,96,0.00,,,0.01,0,Wunderground v.1.15,2013-03-12 07:31:00,
2013-03-12 03:32:00,29.1,28.1,29.51,SSE,166,1.0,4.0,96,0.00,,,0.01,0,Wunderground v.1.15,2013-03-12 07:32:00,
2013-03-12 03:35:00,29.3,28.3,29.51,SSE,165,1.0,4.0,96,0.00,,,0.01,0,Wunderground v.1.15,2013-03-12 07:35:00,
2013-03-12 03:37:00,29.4,28.4,29.52,South,169,1.0,4.0,96,0.00,,,0.01,0,Wunderground v.1.15,2013-03-12 07:37:00,
2013-03-12 03:39:00,29.4,28.4,29.52,South,173,2.0,4.0,96,0.00,,,0.01,0,Wunderground v.1.15,2013-03-12 07:39:00,
2013-03-12 03:41:00,29.5,28.5,29.52,WSW,257,2.0,4.0,96,0.00,,,0.01,0,Wunderground v.1.15,2013-03-12 07:41:00,
2013-03-12 03:44:00,29.6,28.6,29.52,South,186,1.0,4.0,96,0.00,,,0.01,0,Wunderground v.1.15,2013-03-12 07:44:00,
2013-03-12 03:46:00,29.7,28.7,29.52,South,186,1.0,4.0,96,0.00,,,0.01,0,Wunderground v.1.15,2013-03-12 07:46:00,
2013-03-12 03:49:00,29.7,28.7,29.52,South,173,1.0,5.0,96,0.00,,,0.01,0,Wunderground v.1.15,2013-03-12 07:49:00,
2013-03-12 03:52:00,29.8,28.8,29.52,South,173,1.0,4.0,96,0.00,,,0.01,0,Wunderground v.1.15,2013-03-12 07:52:00,
2013-03-12 03:53:00,29.8,28.8,29.52,SSW,194,2.0,4.0,96,0.00,,,0.01,0,Wunderground v.1.15,2013-03-12 07:53:00,
2013-03-12 03:54:00,29.8,28.8,29.52,SSW,194,2.0,7.0,96,0.00,,,0.01,0,Wunderground v.1.15,2013-03-12 07:54:00,
2013-03-12 03:57:00,29.7,28.7,29.52,NE,41,2.0,7.0,96,0.00,,,0.01,0,Wunderground v.1.15,2013-03-12 07:57:00,
2013-03-12 03:58:00,29.7,28.7,29.52,SSE,161,2.0,7.0,96,0.00,,,0.01,0,Wunderground v.1.15,2013-03-12 07:58:00,
2013-03-12 03:59:00,29.7,28.7,29.52,South,175,2.0,7.0,96,0.00,,,0.01,0,Wunderground v.1.15,2013-03-12 07:59:00,
2013-03-12 04:01:00,29.6,28.6,29.52,SSE,167,3.0,7.0,96,0.00,,,0.01,0,Wunderground v.1.15,2013-03-12 08:01:00,
2013-03-12 04:02:00,29.6,28.6,29.52,SSE,165,3.0,7.0,96,0.00,,,0.01,0,Wunderground v.1.15,2013-03-12 08:02:00,
2013-03-12 04:04:00,29.5,28.5,29.52,South,177,4.0,7.0,96,0.00,,,0.01,0,Wunderground v.1.15,2013-03-12 08:04:00,
2013-03-12 04:05:00,29.4,28.4,29.52,South,169,4.0,7.0,96,0.00,,,0.01,0,Wunderground v.1.15,2013-03-12 08:05:00,
2013-03-12 04:07:00,29.4,28.4,29.52,South,174,4.0,7.0,96,0.00,,,0.01,0,Wunderground v.1.15,2013-03-12 08:07:00,
2013-03-12 04:09:00,29.4,28.4,29.53,SSE,150,4.0,7.0,96,0.00,,,0.01,0,Wunderground v.1.15,2013-03-12 08:09:00,
2013-03-12 04:11:00,29.3,28.3,29.52,South,178,4.0,5.0,96,0.00,,,0.01,0,Wunderground v.1.15,2013-03-12 08:11:00,
2013-03-12 04:12:00,29.3,28.3,29.52,South,190,4.0,5.0,96,0.00,,,0.01,0,Wunderground v.1.15,2013-03-12 08:12:00,
2013-03-12 04:14:00,29.3,28.3,29.52,South,178,3.0,5.0,96,0.00,,,0.01,0,Wunderground v.1.15,2013-03-12 08:14:00,
2013-03-12 04:15:00,29.3,28.3,29.52,South,188,3.0,5.0,96,0.00,,,0.01,0,Wunderground v.1.15,2013-03-12 08:15:00,
2013-03-12 04:18:00,29.2,28.2,29.53,South,169,3.0,5.0,96,0.00,,,0.01,0,Wunderground v.1.15,2013-03-12 08:18:00,
2013-03-12 04:19:00,29.2,28.2,29.53,SSE,161,3.0,5.0,96,0.00,,,0.01,0,Wunderground v.1.15,2013-03-12 08:19:00,
2013-03-12 04:20:00,29.2,28.2,29.53,South,170,3.0,3.0,96,0.00,,,0.01,0,Wunderground v.1.15,2013-03-12 08:20:00,
2013-03-12 04:24:00,29.2,28.2,29.53,SSE,163,3.0,4.0,96,0.00,,,0.01,0,Wunderground v.1.15,2013-03-12 08:24:00,
2013-03-12 04:26:00,29.2,28.2,29.53,South,183,2.0,4.0,96,0.00,,,0.01,0,Wunderground v.1.15,2013-03-12 08:26:00,
2013-03-12 04:27:00,29.1,28.1,29.53,SSE,167,3.0,4.0,96,0.00,,,0.01,0,Wunderground v.1.15,2013-03-12 08:27:00,
2013-03-12 04:31:00,29.0,28.0,29.53,SE,144,3.0,6.0,96,0.00,,,0.01,0,Wunderground v.1.15,2013-03-12 08:31:00,
2013-03-12 04:32:00,29.0,28.0,29.53,North,9,3.0,6.0,96,0.00,,,0.01,0,Wunderground v.1.15,2013-03-12 08:32:00,
2013-03-12 04:38:00,28.7,27.7,29.53,South,171,4.0,7.0,96,0.00,,,0.01,0,Wunderground v.1.15,2013-03-12 08:38:00,
2013-03-12 04:39:00,28.6,27.6,29.53,SSE,167,4.0,7.0,96,0.00,,,0.01,0,Wunderground v.1.15,2013-03-12 08:39:00,
2013-03-12 04:40:00,28.6,27.6,29.53,South,170,4.0,8.0,96,0.00,,,0.01,0,Wunderground v.1.15,2013-03-12 08:40:00,
2013-03-12 04:45:00,28.4,27.2,29.54,South,180,4.0,8.0,95,0.00,,,0.01,0,Wunderground v.1.15,2013-03-12 08:45:00,
2013-03-12 04:47:00,28.4,27.2,29.54,South,171,4.0,8.0,95,0.00,,,0.01,0,Wunderground v.1.15,2013-03-12 08:47:00,
2013-03-12 04:48:00,28.4,27.2,29.54,South,186,4.0,8.0,95,0.00,,,0.01,0,Wunderground v.1.15,2013-03-12 08:48:00,
2013-03-12 04:52:00,28.3,27.3,29.54,South,171,4.0,5.0,96,0.00,,,0.01,0,Wunderground v.1.15,2013-03-12 08:52:00,
2013-03-12 04:53:00,28.4,27.4,29.54,SSE,166,4.0,5.0,96,0.00,,,0.01,0,Wunderground v.1.15,2013-03-12 08:53:00,
2013-03-12 04:57:00,28.4,27.4,29.55,SSE,160,4.0,8.0,96,0.00,,,0.01,0,Wunderground v.1.15,2013-03-12 08:57:00,
2013-03-12 04:58:00,28.4,27.4,29.55,South,173,4.0,8.0,96,0.00,,,0.01,0,Wunderground v.1.15,2013-03-12 08:58:00,
2013-03-12 04:59:00,28.4,27.4,29.55,SSE,147,4.0,8.0,96,0.00,,,0.01,0,Wunderground v.1.15,2013-03-12 08:59:00,
2013-03-12 05:02:00,28.5,27.5,29.55,SSE,165,4.0,7.0,96,0.00,,,0.01,0,Wunderground v.1.15,2013-03-12 09:02:00,
2013-03-12 05:04:00,28.5,27.5,29.55,South,191,5.0,7.0,96,0.00,,,0.01,0,Wunderground v.1.15,2013-03-12 09:04:00,
2013-03-12 05:05:00,28.5,27.5,29.55,South,183,5.0,7.0,96,0.00,,,0.01,0,Wunderground v.1.15,2013-03-12 09:05:00,
2013-03-12 05:10:00,28.5,27.5,29.55,South,176,5.0,5.0,96,0.00,,,0.01,0,Wunderground v.1.15,2013-03-12 09:10:00,
2013-03-12 05:11:00,28.5,27.5,29.56,South,170,5.0,7.0,96,0.00,,,0.01,0,Wunderground v.1.15,2013-03-12 09:11:00,
2013-03-12 05:15:00,28.4,27.4,29.56,SSE,165,6.0,8.0,96,0.00,,,0.01,0,Wunderground v.1.15,2013-03-12 09:15:00,
2013-03-12 05:16:00,28.3,27.3,29.56,South,182,6.0,8.0,96,0.00,,,0.01,0,Wunderground v.1.15,2013-03-12 09:16:00,
2013-03-12 05:18:00,28.3,27.3,29.56,South,169,6.0,10.0,96,0.00,,,0.01,0,Wunderground v.1.15,2013-03-12 09:18:00,
2013-03-12 05:22:00,28.1,26.9,29.56,South,176,6.0,7.0,95,0.00,,,0.01,0,Wunderground v.1.15,2013-03-12 09:22:00,
2013-03-12 05:23:00,28.1,26.9,29.56,South,176,6.0,10.0,95,0.00,,,0.01,0,Wunderground v.1.15,2013-03-12 09:23:00,
2013-03-12 05:25:00,28.0,26.8,29.56,SSE,159,7.0,10.0,95,0.00,,,0.01,0,Wunderground v.1.15,2013-03-12 09:25:00,
2013-03-12 05:27:00,27.9,26.7,29.56,South,185,6.0,10.0,95,0.00,,,0.01,0,Wunderground v.1.15,2013-03-12 09:27:00,
2013-03-12 05:30:00,27.9,26.7,29.56,South,177,5.0,5.0,95,0.00,,,0.01,0,Wunderground v.1.15,2013-03-12 09:30:00,
2013-03-12 05:32:00,27.8,26.6,29.56,SSE,168,5.0,7.0,95,0.00,,,0.01,0,Wunderground v.1.15,2013-03-12 09:32:00,
2013-03-12 05:33:00,27.8,26.6,29.56,SSE,167,5.0,7.0,95,0.00,,,0.01,0,Wunderground v.1.15,2013-03-12 09:33:00,
2013-03-12 05:36:00,27.7,26.5,29.56,South,172,5.0,8.0,95,0.00,,,0.01,0,Wunderground v.1.15,2013-03-12 09:36:00,
2013-03-12 05:39:00,27.6,26.1,29.57,SSW,192,6.0,8.0,94,0.00,,,0.01,0,Wunderground v.1.15,2013-03-12 09:39:00,
2013-03-12 05:41:00,27.6,26.1,29.57,SSE,165,6.0,8.0,94,0.00,,,0.01,0,Wunderground v.1.15,2013-03-12 09:41:00,
2013-03-12 05:45:00,27.5,26.0,29.57,South,183,7.0,9.0,94,0.00,,,0.01,0,Wunderground v.1.15,2013-03-12 09:45:00,
2013-03-12 05:46:00,27.5,26.0,29.57,South,173,7.0,9.0,94,0.00,,,0.01,0,Wunderground v.1.15,2013-03-12 09:46:00,
2013-03-12 05:51:00,27.4,25.9,29.58,South,169,6.0,8.0,94,0.00,,,0.01,0,Wunderground v.1.15,2013-03-12 09:51:00,
2013-03-12 05:52:00,27.4,25.9,29.58,South,178,6.0,8.0,94,0.00,,,0.01,0,Wunderground v.1.15,2013-03-12 09:52:00,
2013-03-12 05:54:00,27.4,25.9,29.58,South,172,5.0,10.0,94,0.00,,,0.01,0,Wunderground v.1.15,2013-03-12 09:54:00,
2013-03-12 05:55:00,27.3,25.8,29.58,South,186,6.0,10.0,94,0.00,,,0.01,0,Wunderground v.1.15,2013-03-12 09:55:00,
2013-03-12 05:59:00,27.2,25.7,29.58,South,175,6.0,10.0,94,0.00,,,0.01,0,Wunderground v.1.15,2013-03-12 09:59:00,
2013-03-12 06:00:00,27.2,25.7,29.58,South,173,6.0,7.0,94,0.00,,,0.01,0,Wunderground v.1.15,2013-03-12 10:00:00,
2013-03-12 06:01:00,27.2,25.7,29.58,South,185,6.0,7.0,94,0.00,,,0.01,0,Wunderground v.1.15,2013-03-12 10:01:00,
2013-03-12 06:04:00,27.2,25.7,29.58,South,182,6.0,7.0,94,0.00,,,0.01,0,Wunderground v.1.15,2013-03-12 10:04:00,
2013-03-12 06:05:00,27.2,25.7,29.58,South,190,5.0,7.0,94,0.00,,,0.01,0,Wunderground v.1.15,2013-03-12 10:05:00,
2013-03-12 06:08:00,27.2,25.7,29.58,SSE,164,5.0,7.0,94,0.00,,,0.01,0,Wunderground v.1.15,2013-03-12 10:08:00,
2013-03-12 06:09:00,27.2,25.7,29.59,South,170,5.0,7.0,94,0.00,,,0.01,0,Wunderground v.1.15,2013-03-12 10:09:00,
2013-03-12 06:10:00,27.2,25.7,29.59,South,174,5.0,5.0,94,0.00,,,0.01,0,Wunderground v.1.15,2013-03-12 10:10:00,
2013-03-12 06:14:00,27.2,25.7,29.59,SSE,163,4.0,5.0,94,0.00,,,0.01,0,Wunderground v.1.15,2013-03-12 10:14:00,
2013-03-12 06:15:00,27.2,25.7,29.59,SE,130,4.0,5.0,94,0.00,,,0.01,0,Wunderground v.1.15,2013-03-12 10:15:00,
2013-03-12 06:19:00,27.2,25.7,29.59,South,178,5.0,9.0,94,0.00,,,0.01,0,Wunderground v.1.15,2013-03-12 10:19:00,
2013-03-12 06:20:00,27.3,25.8,29.59,SSW,194,5.0,5.0,94,0.00,,,0.01,0,Wunderground v.1.15,2013-03-12 10:20:00,
2013-03-12 06:22:00,27.3,25.8,29.60,South,185,6.0,6.0,94,0.00,,,0.01,0,Wunderground v.1.15,2013-03-12 10:22:00,
2013-03-12 06:23:00,27.3,25.8,29.60,South,171,6.0,7.0,94,0.00,,,0.01,0,Wunderground v.1.15,2013-03-12 10:23:00,
2013-03-12 06:25:00,27.4,25.9,29.60,SSW,193,6.0,11.0,94,0.00,,,0.01,0,Wunderground v.1.15,2013-03-12 10:25:00,
2013-03-12 06:27:00,27.4,25.9,29.60,South,180,7.0,11.0,94,0.00,,,0.01,0,Wunderground v.1.15,2013-03-12 10:27:00,
2013-03-12 06:29:00,27.4,25.9,29.60,South,172,8.0,11.0,94,0.00,,,0.01,0,Wunderground v.1.15,2013-03-12 10:29:00,
2013-03-12 06:31:00,27.2,25.7,29.60,South,177,8.0,8.0,94,0.00,,,0.01,0,Wunderground v.1.15,2013-03-12 10:31:00,
2013-03-12 06:33:00,27.2,25.7,29.60,South,173,8.0,13.0,94,0.00,,,0.01,0,Wunderground v.1.15,2013-03-12 10:33:00,
2013-03-12 06:36:00,27.2,25.7,29.60,South,181,9.0,13.0,94,0.00,,,0.01,0,Wunderground v.1.15,2013-03-12 10:36:00,
2013-03-12 06:38:00,27.2,25.7,29.61,South,180,8.0,13.0,94,0.00,,,0.01,0,Wunderground v.1.15,2013-03-12 10:38:00,
2013-03-12 06:40:00,27.2,25.4,29.61,SSW,209,8.0,8.0,93,0.00,,,0.01,0,Wunderground v.1.15,2013-03-12 10:40:00,
2013-03-12 06:44:00,27.2,25.4,29.61,SSE,165,7.0,8.0,93,0.00,,,0.01,0,Wunderground v.1.15,2013-03-12 10:44:00,
2013-03-12 06:45:00,27.2,25.4,29.61,South,191,7.0,8.0,93,0.00,,,0.01,0,Wunderground v.1.15,2013-03-12 10:45:00,
2013-03-12 06:46:00,27.2,25.4,29.61,South,180,7.0,8.0,93,0.00,,,0.01,0,Wunderground v.1.15,2013-03-12 10:46:00,
2013-03-12 06:48:00,27.2,25.4,29.62,South,169,7.0,9.0,93,0.00,,,0.01,0,Wunderground v.1.15,2013-03-12 10:48:00,
2013-03-12 06:52:00,27.1,25.3,29.62,South,170,6.0,8.0,93,0.00,,,0.01,0,Wunderground v.1.15,2013-03-12 10:52:00,
2013-03-12 06:53:00,27.1,25.3,29.62,South,170,7.0,10.0,93,0.00,,,0.01,0,Wunderground v.1.15,2013-03-12 10:53:00,
2013-03-12 06:54:00,27.1,25.3,29.62,South,186,7.0,10.0,93,0.00,,,0.01,0,Wunderground v.1.15,2013-03-12 10:54:00,
2013-03-12 06:55:00,27.0,25.2,29.62,South,173,7.0,10.0,93,0.00,,,0.01,0,Wunderground v.1.15,2013-03-12 10:55:00,
2013-03-12 06:59:00,26.9,24.9,29.62,South,184,8.0,13.0,92,0.00,,,0.01,0,Wunderground v.1.15,2013-03-12 10:59:00,
2013-03-12 07:00:00,26.9,24.9,29.63,South,173,8.0,8.0,92,0.00,,,0.01,0,Wunderground v.1.15,2013-03-12 11:00:00,
2013-03-12 07:01:00,26.8,24.8,29.63,SSE,157,8.0,8.0,92,0.00,,,0.01,0,Wunderground v.1.15,2013-03-12 11:01:00,
2013-03-12 07:02:00,26.8,24.8,29.62,South,180,8.0,8.0,92,0.00,,,0.01,0,Wunderground v.1.15,2013-03-12 11:02:00,
2013-03-12 07:06:00,26.7,24.7,29.62,SSE,158,8.0,8.0,92,0.00,,,0.01,0,Wunderground v.1.15,2013-03-12 11:06:00,
2013-03-12 07:07:00,26.7,24.7,29.62,SSE,152,8.0,8.0,92,0.00,,,0.01,0,Wunderground v.1.15,2013-03-12 11:07:00,
2013-03-12 07:09:00,26.7,24.7,29.62,South,173,7.0,13.0,92,0.00,,,0.01,0,Wunderground v.1.15,2013-03-12 11:09:00,
2013-03-12 07:11:00,26.6,24.6,29.62,SSE,163,8.0,13.0,92,0.00,,,0.01,0,Wunderground v.1.15,2013-03-12 11:11:00,
2013-03-12 07:12:00,26.5,24.5,29.62,South,176,8.0,13.0,92,0.00,,,0.01,0,Wunderground v.1.15,2013-03-12 11:12:00,
2013-03-12 07:17:00,26.4,24.4,29.63,South,176,10.0,13.0,92,0.00,,,0.01,0,Wunderground v.1.15,2013-03-12 11:17:00,
2013-03-12 07:19:00,26.3,24.3,29.62,South,187,10.0,13.0,92,0.00,,,0.01,0,Wunderground v.1.15,2013-03-12 11:19:00,
2013-03-12 07:21:00,26.3,24.0,29.62,South,174,10.0,13.0,91,0.00,,,0.01,0,Wunderground v.1.15,2013-03-12 11:21:00,
2013-03-12 07:23:00,26.2,23.9,29.63,South,174,10.0,16.0,91,0.00,,,0.01,0,Wunderground v.1.15,2013-03-12 11:23:00,
2013-03-12 07:25:00,26.1,23.8,29.63,South,191,10.0,16.0,91,0.00,,,0.01,0,Wunderground v.1.15,2013-03-12 11:25:00,
2013-03-12 07:28:00,26.0,23.7,29.63,South,175,10.0,16.0,91,0.00,,,0.01,0,Wunderground v.1.15,2013-03-12 11:28:00,
2013-03-12 07:30:00,26.0,23.7,29.63,SSE,165,10.0,10.0,91,0.00,,,0.01,0,Wunderground v.1.15,2013-03-12 11:30:00,
2013-03-12 07:32:00,26.0,23.7,29.63,South,170,10.0,10.0,91,0.00,,,0.01,0,Wunderground v.1.15,2013-03-12 11:32:00,
2013-03-12 07:36:00,25.9,23.6,29.63,South,180,8.0,10.0,91,0.00,,,0.01,0,Wunderground v.1.15,2013-03-12 11:36:00,
2013-03-12 07:37:00,25.9,23.6,29.63,South,179,8.0,10.0,91,0.00,,,0.01,0,Wunderground v.1.15,2013-03-12 11:37:00,
2013-03-12 07:39:00,25.9,23.6,29.63,SSE,168,8.0,11.0,91,0.00,,,0.01,0,Wunderground v.1.15,2013-03-12 11:39:00,
2013-03-12 07:41:00,25.9,23.6,29.63,South,174,7.0,10.0,91,0.00,,,0.01,0,Wunderground v.1.15,2013-03-12 11:41:00,
2013-03-12 07:42:00,25.9,23.6,29.63,ENE,58,7.0,10.0,91,0.00,,,0.01,0,Wunderground v.1.15,2013-03-12 11:42:00,
2013-03-12 07:45:00,25.8,23.5,29.63,SSE,168,7.0,13.0,91,0.00,,,0.01,0,Wunderground v.1.15,2013-03-12 11:45:00,
2013-03-12 07:46:00,25.8,23.5,29.63,South,189,8.0,13.0,91,0.00,,,0.01,0,Wunderground v.1.15,2013-03-12 11:46:00,
2013-03-12 07:47:00,25.8,23.5,29.63,SSE,163,8.0,13.0,91,0.00,,,0.01,0,Wunderground v.1.15,2013-03-12 11:47:00,
2013-03-12 07:52:00,25.7,23.4,29.63,South,172,9.0,14.0,91,0.00,,,0.01,0,Wunderground v.1.15,2013-03-12 11:52:00,
2013-03-12 07:53:00,25.7,23.2,29.63,South,171,10.0,14.0,90,0.00,,,0.01,0,Wunderground v.1.15,2013-03-12 11:53:00,
2013-03-12 07:57:00,25.6,23.1,29.63,SSE,167,10.0,14.0,90,0.00,,,0.01,0,Wunderground v.1.15,2013-03-12 11:57:00,
2013-03-12 07:58:00,25.6,23.1,29.63,South,169,10.0,14.0,90,0.00,,,0.01,0,Wunderground v.1.15,2013-03-12 11:58:00,
2013-03-12 08:00:00,25.5,23.0,29.63,South,179,10.0,10.0,90,0.00,,,0.01,0,Wunderground v.1.15,2013-03-12 12:00:00,
2013-03-12 08:01:00,25.5,23.0,29.63,South,171,10.0,10.0,90,0.00,,,0.01,0,Wunderground v.1.15,2013-03-12 12:01:00,
2013-03-12 08:03:00,25.5,23.0,29.64,South,170,9.0,10.0,90,0.00,,,0.01,0,Wunderground v.1.15,2013-03-12 12:03:00,
2013-03-12 08:07:00,25.5,23.0,29.64,South,171,9.0,17.0,90,0.00,,,0.01,0,Wunderground v.1.15,2013-03-12 12:07:00,
2013-03-12 08:08:00,25.5,23.0,29.64,South,175,10.0,17.0,90,0.00,,,0.01,0,Wunderground v.1.15,2013-03-12 12:08:00,
2013-03-12 08:11:00,25.5,23.0,29.64,South,173,9.0,16.0,90,0.00,,,0.01,0,Wunderground v.1.15,2013-03-12 12:11:00,
2013-03-12 08:12:00,25.5,23.0,29.64,South,190,9.0,16.0,90,0.00,,,0.01,0,Wunderground v.1.15,2013-03-12 12:12:00,
2013-03-12 08:14:00,25.5,23.0,29.64,SSW,192,9.0,16.0,90,0.00,,,0.01,0,Wunderground v.1.15,2013-03-12 12:14:00,
2013-03-12 08:16:00,25.5,23.0,29.65,South,179,9.0,16.0,90,0.00,,,0.01,0,Wunderground v.1.15,2013-03-12 12:16:00,
2013-03-12 08:20:00,25.5,23.0,29.65,South,176,9.0,10.0,90,0.00,,,0.01,0,Wunderground v.1.15,2013-03-12 12:20:00,
2013-03-12 08:22:00,25.5,23.0,29.65,SSW,192,9.0,11.0,90,0.00,,,0.01,0,Wunderground v.1.15,2013-03-12 12:22:00,
2013-03-12 08:24:00,25.5,23.0,29.65,South,169,9.0,11.0,90,0.00,,,0.01,0,Wunderground v.1.15,2013-03-12 12:24:00,
2013-03-12 08:26:00,25.5,23.0,29.65,South,172,8.0,11.0,90,0.00,,,0.01,0,Wunderground v.1.15,2013-03-12 12:26:00,
2013-03-12 08:28:00,25.5,23.0,29.65,SSE,167,8.0,11.0,90,0.00,,,0.01,0,Wunderground v.1.15,2013-03-12 12:28:00,
2013-03-12 08:29:00,25.5,23.0,29.66,South,169,8.0,11.0,90,0.00,,,0.01,0,Wunderground v.1.15,2013-03-12 12:29:00,
2013-03-12 08:30:00,25.5,23.0,29.66,South,179,8.0,10.0,90,0.00,,,0.01,0,Wunderground v.1.15,2013-03-12 12:30:00,
2013-03-12 08:36:00,25.5,23.0,29.66,SSE,165,7.0,10.0,90,0.00,,,0.01,0,Wunderground v.1.15,2013-03-12 12:36:00,
2013-03-12 08:37:00,25.5,23.0,29.66,South,182,7.0,10.0,90,0.00,,,0.01,0,Wunderground v.1.15,2013-03-12 12:37:00,
2013-03-12 08:40:00,25.4,22.9,29.66,East,94,6.0,6.0,90,0.00,,,0.01,0,Wunderground v.1.15,2013-03-12 12:40:00,
2013-03-12 08:43:00,25.4,22.9,29.66,South,170,5.0,7.0,90,0.00,,,0.01,0,Wunderground v.1.15,2013-03-12 12:43:00,
2013-03-12 08:44:00,25.3,22.8,29.66,South,186,5.0,10.0,90,0.00,,,0.01,0,Wunderground v.1.15,2013-03-12 12:44:00,
2013-03-12 08:45:00,25.3,22.8,29.66,South,189,5.0,10.0,90,0.00,,,0.01,0,Wunderground v.1.15,2013-03-12 12:45:00,
2013-03-12 08:46:00,25.3,22.8,29.66,SSW,192,5.0,10.0,90,0.00,,,0.01,0,Wunderground v.1.15,2013-03-12 12:46:00,
2013-03-12 08:48:00,25.4,22.9,29.66,South,171,6.0,10.0,90,0.00,,,0.01,5,Wunderground v.1.15,2013-03-12 12:48:00,
2013-03-12 08:49:00,25.4,22.9,29.66,South,174,6.0,10.0,90,0.00,,,0.01,5,Wunderground v.1.15,2013-03-12 12:49:00,
2013-03-12 08:52:00,25.4,22.9,29.67,South,172,7.0,8.0,90,0.00,,,0.01,5,Wunderground v.1.15,2013-03-12 12:52:00,
2013-03-12 08:55:00,25.4,22.9,29.67,South,187,7.0,8.0,90,0.00,,,0.01,5,Wunderground v.1.15,2013-03-12 12:55:00,
2013-03-12 08:57:00,25.4,22.9,29.67,South,178,6.0,8.0,90,0.00,,,0.01,5,Wunderground v.1.15,2013-03-12 12:57:00,
2013-03-12 08:58:00,25.4,22.9,29.67,WNW,298,6.0,8.0,90,0.00,,,0.01,5,Wunderground v.1.15,2013-03-12 12:58:00,
2013-03-12 09:01:00,25.4,22.9,29.67,South,180,7.0,9.0,90,0.00,,,0.01,5,Wunderground v.1.15,2013-03-12 13:01:00,
2013-03-12 09:04:00,25.3,22.8,29.67,SSE,156,7.0,9.0,90,0.00,,,0.01,7,Wunderground v.1.15,2013-03-12 13:04:00,
2013-03-12 09:06:00,25.3,22.8,29.67,South,180,7.0,9.0,90,0.00,,,0.01,7,Wunderground v.1.15,2013-03-12 13:06:00,
2013-03-12 09:07:00,25.3,22.8,29.68,SSE,168,7.0,11.0,90,0.00,,,0.01,7,Wunderground v.1.15,2013-03-12 13:07:00,
2013-03-12 09:12:00,25.2,22.7,29.68,South,184,8.0,10.0,90,0.00,,,0.01,7,Wunderground v.1.15,2013-03-12 13:12:00,
2013-03-12 09:13:00,25.2,22.7,29.68,South,175,8.0,10.0,90,0.00,,,0.01,7,Wunderground v.1.15,2013-03-12 13:13:00,
2013-03-12 09:14:00,25.2,22.7,29.68,South,174,8.0,10.0,90,0.00,,,0.01,7,Wunderground v.1.15,2013-03-12 13:14:00,
2013-03-12 09:16:00,25.2,22.7,29.68,South,173,8.0,10.0,90,0.00,,,0.01,5,Wunderground v.1.15,2013-03-12 13:16:00,
2013-03-12 09:20:00,25.1,22.6,29.68,South,186,7.0,7.0,90,0.00,,,0.01,7,Wunderground v.1.15,2013-03-12 13:20:00,
2013-03-12 09:22:00,25.1,22.6,29.68,South,181,6.0,7.0,90,0.00,,,0.01,5,Wunderground v.1.15,2013-03-12 13:22:00,
2013-03-12 09:24:00,25.1,22.6,29.68,SSW,206,6.0,8.0,90,0.00,,,0.01,5,Wunderground v.1.15,2013-03-12 13:24:00,
2013-03-12 09:26:00,25.1,22.6,29.68,South,183,6.0,8.0,90,0.00,,,0.01,5,Wunderground v.1.15,2013-03-12 13:26:00,
2013-03-12 09:30:00,25.0,22.5,29.68,South,173,5.0,10.0,90,0.00,,,0.01,7,Wunderground v.1.15,2013-03-12 13:30:00,
2013-03-12 09:32:00,25.0,22.5,29.68,South,172,7.0,15.0,90,0.00,,,0.01,7,Wunderground v.1.15,2013-03-12 13:32:00,
2013-03-12 09:36:00,24.9,22.4,29.69,South,179,7.0,15.0,90,0.00,,,0.01,9,Wunderground v.1.15,2013-03-12 13:36:00,
2013-03-12 09:37:00,25.0,22.5,29.68,SSE,161,7.0,15.0,90,0.00,,,0.01,9,Wunderground v.1.15,2013-03-12 13:37:00,
2013-03-12 09:38:00,24.9,22.4,29.69,SSE,159,7.0,15.0,90,0.00,,,0.01,9,Wunderground v.1.15,2013-03-12 13:38:00,
2013-03-12 09:42:00,24.9,22.4,29.69,South,171,6.0,7.0,90,0.00,,,0.01,11,Wunderground v.1.15,2013-03-12 13:42:00,
2013-03-12 09:43:00,24.9,22.4,29.69,South,177,6.0,7.0,90,0.00,,,0.01,12,Wunderground v.1.15,2013-03-12 13:43:00,
2013-03-12 09:44:00,24.9,22.4,29.69,SSE,161,5.0,7.0,90,0.00,,,0.01,12,Wunderground v.1.15,2013-03-12 13:44:00,
2013-03-12 09:47:00,24.9,22.4,29.69,NNW,347,4.0,7.0,90,0.00,,,0.01,12,Wunderground v.1.15,2013-03-12 13:47:00,
2013-03-12 09:48:00,24.9,22.4,29.69,ESE,115,4.0,7.0,90,0.00,,,0.01,12,Wunderground v.1.15,2013-03-12 13:48:00,
2013-03-12 09:49:00,24.9,22.6,29.69,SSE,150,4.0,8.0,91,0.00,,,0.01,12,Wunderground v.1.15,2013-03-12 13:49:00,
2013-03-12 09:53:00,24.8,22.5,29.69,South,171,4.0,8.0,91,0.00,,,0.01,14,Wunderground v.1.15,2013-03-12 13:53:00,
2013-03-12 09:54:00,24.8,22.5,29.69,SSE,163,4.0,8.0,91,0.00,,,0.01,14,Wunderground v.1.15,2013-03-12 13:54:00,
2013-03-12 09:55:00,24.9,22.6,29.69,South,178,4.0,8.0,91,0.00,,,0.01,14,Wunderground v.1.15,2013-03-12 13:55:00,
2013-03-12 09:58:00,24.8,22.5,29.69,SSE,163,5.0,8.0,91,0.00,,,0.01,14,Wunderground v.1.15,2013-03-12 13:58:00,
2013-03-12 09:59:00,24.9,22.6,29.69,South,178,5.0,8.0,91,0.00,,,0.01,16,Wunderground v.1.15,2013-03-12 13:59:00,
2013-03-12 10:00:00,24.8,22.5,29.69,ESE,109,4.0,5.0,91,0.00,,,0.01,16,Wunderground v.1.15,2013-03-12 14:00:00,
2013-03-12 10:02:00,24.8,22.5,29.69,South,175,5.0,8.0,91,0.00,,,0.01,16,Wunderground v.1.15,2013-03-12 14:02:00,
2013-03-12 10:04:00,24.8,22.5,29.69,South,172,5.0,8.0,91,0.00,,,0.01,16,Wunderground v.1.15,2013-03-12 14:04:00,
2013-03-12 10:07:00,24.7,22.4,29.69,WSW,238,5.0,8.0,91,0.00,,,0.01,16,Wunderground v.1.15,2013-03-12 14:07:00,
2013-03-12 10:08:00,24.7,22.4,29.70,South,171,5.0,8.0,91,0.00,,,0.01,16,Wunderground v.1.15,2013-03-12 14:08:00,
2013-03-12 10:10:00,24.7,22.4,29.70,South,186,5.0,7.0,91,0.00,,,0.01,16,Wunderground v.1.15,2013-03-12 14:10:00,
2013-03-12 10:14:00,24.7,22.7,29.70,SE,141,6.0,9.0,92,0.00,,,0.01,21,Wunderground v.1.15,2013-03-12 14:14:00,
2013-03-12 10:17:00,24.7,22.7,29.70,South,179,6.0,9.0,92,0.00,,,0.01,25,Wunderground v.1.15,2013-03-12 14:17:00,
2013-03-12 10:18:00,24.7,22.7,29.70,SSE,168,6.0,10.0,92,0.00,,,0.01,23,Wunderground v.1.15,2013-03-12 14:18:00,
2013-03-12 10:20:00,24.7,22.7,29.70,South,176,6.0,9.0,92,0.00,,,0.01,25,Wunderground v.1.15,2013-03-12 14:20:00,
2013-03-12 10:23:00,24.7,22.7,29.70,South,175,5.0,11.0,92,0.00,,,0.01,25,Wunderground v.1.15,2013-03-12 14:23:00,
2013-03-12 10:26:00,24.7,22.7,29.70,South,171,6.0,11.0,92,0.00,,,0.01,23,Wunderground v.1.15,2013-03-12 14:26:00,
2013-03-12 10:27:00,24.7,22.7,29.70,South,173,6.0,11.0,92,0.00,,,0.01,23,Wunderground v.1.15,2013-03-12 14:27:00,
2013-03-12 10:28:00,24.7,22.7,29.70,SE,131,5.0,11.0,92,0.00,,,0.01,23,Wunderground v.1.15,2013-03-12 14:28:00,
2013-03-12 10:30:00,24.7,22.7,29.70,South,190,5.0,5.0,92,0.00,,,0.01,23,Wunderground v.1.15,2013-03-12 14:30:00,
2013-03-12 10:33:00,24.8,22.8,29.70,South,173,4.0,9.0,92,0.00,,,0.01,21,Wunderground v.1.15,2013-03-12 14:33:00,
2013-03-12 10:34:00,24.8,22.8,29.70,SSE,168,4.0,9.0,92,0.00,,,0.01,21,Wunderground v.1.15,2013-03-12 14:34:00,
2013-03-12 10:38:00,24.8,22.8,29.70,South,172,4.0,9.0,92,0.00,,,0.01,26,Wunderground v.1.15,2013-03-12 14:38:00,
2013-03-12 10:39:00,24.8,22.8,29.70,SSE,164,4.0,9.0,92,0.00,,,0.01,26,Wunderground v.1.15,2013-03-12 14:39:00,
2013-03-12 10:42:00,24.8,22.8,29.70,South,174,4.0,6.0,92,0.00,,,0.01,25,Wunderground v.1.15,2013-03-12 14:42:00,
2013-03-12 10:43:00,24.8,22.8,29.70,South,176,4.0,7.0,92,0.00,,,0.01,25,Wunderground v.1.15,2013-03-12 14:43:00,
2013-03-12 10:44:00,24.9,22.9,29.70,South,186,4.0,7.0,92,0.00,,,0.01,26,Wunderground v.1.15,2013-03-12 14:44:00,
2013-03-12 10:49:00,24.9,22.9,29.69,SSE,167,4.0,8.0,92,0.00,,,0.01,26,Wunderground v.1.15,2013-03-12 14:49:00,
2013-03-12 10:50:00,24.9,22.9,29.69,South,189,4.0,4.0,92,0.00,,,0.01,26,Wunderground v.1.15,2013-03-12 14:50:00,
2013-03-12 10:53:00,24.9,22.9,29.69,SE,125,5.0,6.0,92,0.00,,,0.01,28,Wunderground v.1.15,2013-03-12 14:53:00,
2013-03-12 10:54:00,24.9,22.9,29.69,SSW,201,4.0,6.0,92,0.00,,,0.01,32,Wunderground v.1.15,2013-03-12 14:54:00,
2013-03-12 10:55:00,25.0,23.0,29.69,South,170,5.0,6.0,92,0.00,,,0.01,32,Wunderground v.1.15,2013-03-12 14:55:00,
2013-03-12 10:58:00,25.1,23.1,29.69,SSW,192,4.0,6.0,92,0.00,,,0.01,33,Wunderground v.1.15,2013-03-12 14:58:00,
2013-03-12 11:01:00,25.1,23.1,29.68,SSW,192,4.0,7.0,92,0.00,,,0.01,35,Wunderground v.1.15,2013-03-12 15:01:00,
2013-03-12 11:02:00,25.1,23.1,29.68,South,170,5.0,7.0,92,0.00,,,0.01,35,Wunderground v.1.15,2013-03-12 15:02:00,
2013-03-12 11:04:00,25.2,23.2,29.69,South,183,5.0,10.0,92,0.00,,,0.01,37,Wunderground v.1.15,2013-03-12 15:04:00,
2013-03-12 11:06:00,25.3,23.3,29.69,South,183,5.0,10.0,92,0.00,,,0.01,35,Wunderground v.1.15,2013-03-12 15:06:00,
2013-03-12 11:07:00,25.3,23.3,29.69,South,169,5.0,10.0,92,0.00,,,0.01,33,Wunderground v.1.15,2013-03-12 15:07:00,
2013-03-12 11:10:00,25.5,23.5,29.69,South,175,5.0,6.0,92,0.00,,,0.01,30,Wunderground v.1.15,2013-03-12 15:10:00,
2013-03-12 11:11:00,25.5,23.5,29.69,SSW,192,5.0,6.0,92,0.00,,,0.01,30,Wunderground v.1.15,2013-03-12 15:11:00,
2013-03-12 11:16:00,25.5,23.5,29.69,South,178,4.0,7.0,92,0.00,,,0.01,23,Wunderground v.1.15,2013-03-12 15:16:00,
2013-03-12 11:19:00,25.5,23.5,29.70,South,173,4.0,7.0,92,0.00,,,0.01,19,Wunderground v.1.15,2013-03-12 15:19:00,
2013-03-12 11:21:00,25.6,23.6,29.70,SSW,196,4.0,4.0,92,0.00,,,0.01,21,Wunderground v.1.15,2013-03-12 15:21:00,
2013-03-12 11:22:00,25.6,23.6,29.70,SSE,157,4.0,4.0,92,0.00,,,0.01,21,Wunderground v.1.15,2013-03-12 15:22:00,
2013-03-12 11:26:00,25.6,23.6,29.70,SE,132,3.0,4.0,92,0.00,,,0.01,23,Wunderground v.1.15,2013-03-12 15:26:00,
2013-03-12 11:27:00,25.6,23.6,29.70,South,169,3.0,8.0,92,0.00,,,0.01,21,Wunderground v.1.15,2013-03-12 15:27:00,
2013-03-12 11:29:00,25.6,23.6,29.70,SSE,153,4.0,8.0,92,0.00,,,0.01,21,Wunderground v.1.15,2013-03-12 15:29:00,
2013-03-12 11:31:00,25.6,23.6,29.70,SSE,160,3.0,8.0,92,0.00,,,0.01,19,Wunderground v.1.15,2013-03-12 15:31:00,
2013-03-12 11:32:00,25.6,23.6,29.70,SSE,164,4.0,8.0,92,0.00,,,0.01,19,Wunderground v.1.15,2013-03-12 15:32:00,
2013-03-12 11:33:00,25.6,23.6,29.70,South,179,4.0,8.0,92,0.00,,,0.01,19,Wunderground v.1.15,2013-03-12 15:33:00,
2013-03-12 11:37:00,25.6,23.6,29.70,South,173,4.0,8.0,92,0.00,,,0.01,19,Wunderground v.1.15,2013-03-12 15:37:00,
2013-03-12 11:39:00,25.6,23.6,29.70,South,181,4.0,9.0,92,0.00,,,0.01,18,Wunderground v.1.15,2013-03-12 15:39:00,
2013-03-12 11:43:00,25.6,23.6,29.70,SSW,202,6.0,9.0,92,0.00,,,0.01,23,Wunderground v.1.15,2013-03-12 15:43:00,
2013-03-12 11:44:00,25.5,23.5,29.70,SSE,168,5.0,9.0,92,0.00,,,0.01,25,Wunderground v.1.15,2013-03-12 15:44:00,
2013-03-12 11:47:00,25.5,23.5,29.70,South,174,6.0,9.0,92,0.00,,,0.01,30,Wunderground v.1.15,2013-03-12 15:47:00,
2013-03-12 11:49:00,25.6,23.6,29.70,South,181,6.0,9.0,92,0.00,,,0.01,30,Wunderground v.1.15,2013-03-12 15:49:00,
2013-03-12 11:51:00,25.6,23.6,29.70,South,188,6.0,6.0,92,0.00,,,0.01,33,Wunderground v.1.15,2013-03-12 15:51:00,
2013-03-12 11:53:00,25.7,23.7,29.70,SSE,148,6.0,8.0,92,0.00,,,0.01,33,Wunderground v.1.15,2013-03-12 15:53:00,
2013-03-12 11:54:00,25.7,23.7,29.70,SSE,165,6.0,10.0,92,0.00,,,0.01,33,Wunderground v.1.15,2013-03-12 15:54:00,
2013-03-12 11:57:00,25.8,23.5,29.71,SSW,213,6.0,10.0,91,0.00,,,0.01,32,Wunderground v.1.15,2013-03-12 15:57:00,
2013-03-12 11:58:00,25.8,23.8,29.71,WSW,257,6.0,10.0,92,0.00,,,0.01,33,Wunderground v.1.15,2013-03-12 15:58:00,
2013-03-12 11:59:00,25.7,23.4,29.71,SSE,167,6.0,10.0,91,0.00,,,0.01,35,Wunderground v.1.15,2013-03-12 15:59:00,
2013-03-12 12:03:00,25.7,23.4,29.71,SSE,157,6.0,8.0,91,0.00,,,0.01,40,Wunderground v.1.15,2013-03-12 16:03:00,
2013-03-12 12:04:00,25.7,23.4,29.71,SE,139,6.0,10.0,91,0.00,,,0.01,42,Wunderground v.1.15,2013-03-12 16:04:00,
2013-03-12 12:07:00,25.8,23.5,29.71,South,169,6.0,10.0,91,0.00,,,0.01,40,Wunderground v.1.15,2013-03-12 16:07:00,
2013-03-12 12:10:00,25.8,23.3,29.71,South,186,7.0,12.0,90,0.00,,,0.01,37,Wunderground v.1.15,2013-03-12 16:10:00,
2013-03-12 12:11:00,25.8,23.3,29.71,NNE,32,7.0,12.0,90,0.00,,,0.01,35,Wunderground v.1.15,2013-03-12 16:11:00,
2013-03-12 12:12:00,25.8,23.3,29.72,South,171,6.0,12.0,90,0.00,,,0.01,33,Wunderground v.1.15,2013-03-12 16:12:00,
2013-03-12 12:17:00,25.8,23.0,29.71,South,175,6.0,12.0,89,0.00,,,0.01,39,Wunderground v.1.15,2013-03-12 16:17:00,
2013-03-12 12:18:00,25.8,23.0,29.72,West,269,6.0,12.0,89,0.00,,,0.01,40,Wunderground v.1.15,2013-03-12 16:18:00,
2013-03-12 12:23:00,25.9,23.1,29.71,South,171,6.0,13.0,89,0.00,,,0.01,53,Wunderground v.1.15,2013-03-12 16:23:00,
2013-03-12 12:24:00,25.9,23.1,29.72,SSE,158,7.0,13.0,89,0.00,,,0.01,54,Wunderground v.1.15,2013-03-12 16:24:00,
2013-03-12 12:25:00,25.9,23.1,29.71,SSW,192,7.0,13.0,89,0.00,,,0.01,54,Wunderground v.1.15,2013-03-12 16:25:00,
2013-03-12 12:29:00,25.8,22.7,29.72,West,264,8.0,13.0,88,0.00,,,0.01,60,Wunderground v.1.15,2013-03-12 16:29:00,
2013-03-12 12:30:00,25.9,22.8,29.72,NNW,342,8.0,8.0,88,0.00,,,0.01,60,Wunderground v.1.15,2013-03-12 16:30:00,
2013-03-12 12:32:00,26.0,22.9,29.72,ESE,117,8.0,9.0,88,0.00,,,0.01,62,Wunderground v.1.15,2013-03-12 16:32:00,
2013-03-12 12:36:00,26.1,23.0,29.72,SSE,166,7.0,16.0,88,0.00,,,0.01,60,Wunderground v.1.15,2013-03-12 16:36:00,
2013-03-12 12:37:00,26.1,23.0,29.72,SSE,167,7.0,16.0,88,0.00,,,0.01,62,Wunderground v.1.15,2013-03-12 16:37:00,
2013-03-12 12:38:00,26.1,23.0,29.72,ESE,110,7.0,16.0,88,0.00,,,0.01,60,Wunderground v.1.15,2013-03-12 16:38:00,
2013-03-12 12:43:00,26.0,22.7,29.72,South,186,9.0,12.0,87,0.00,,,0.01,70,Wunderground v.1.15,2013-03-12 16:43:00,
2013-03-12 12:45:00,26.0,22.7,29.72,SSW,212,10.0,12.0,87,0.00,,,0.01,70,Wunderground v.1.15,2013-03-12 16:45:00,
2013-03-12 12:47:00,26.1,23.0,29.72,South,176,9.0,12.0,88,0.00,,,0.01,70,Wunderground v.1.15,2013-03-12 16:47:00,
2013-03-12 12:50:00,26.2,23.1,29.73,SE,138,8.0,8.0,88,0.00,,,0.01,65,Wunderground v.1.15,2013-03-12 16:50:00,
2013-03-12 12:53:00,26.3,23.2,29.73,North,355,6.0,8.0,88,0.00,,,0.01,74,Wunderground v.1.15,2013-03-12 16:53:00,
2013-03-12 12:54:00,26.3,23.2,29.73,SSW,193,6.0,8.0,88,0.00,,,0.01,74,Wunderground v.1.15,2013-03-12 16:54:00,
2013-03-12 12:59:00,26.4,23.3,29.73,South,170,6.0,11.0,88,0.00,,,0.01,77,Wunderground v.1.15,2013-03-12 16:59:00,
2013-03-12 13:01:00,26.5,23.4,29.73,South,174,5.0,6.0,88,0.00,,,0.01,76,Wunderground v.1.15,2013-03-12 17:01:00,
2013-03-12 13:02:00,26.6,23.5,29.73,East,100,5.0,7.0,88,0.00,,,0.01,74,Wunderground v.1.15,2013-03-12 17:02:00,
2013-03-12 13:04:00,26.5,23.4,29.73,SSE,166,7.0,9.0,88,0.00,,,0.01,72,Wunderground v.1.15,2013-03-12 17:04:00,
2013-03-12 13:06:00,26.5,23.4,29.73,East,90,6.0,9.0,88,0.00,,,0.01,79,Wunderground v.1.15,2013-03-12 17:06:00,
2013-03-12 13:08:00,26.5,23.4,29.73,SW,215,6.0,13.0,88,0.00,,,0.01,93,Wunderground v.1.15,2013-03-12 17:08:00,
2013-03-12 13:10:00,26.6,23.5,29.74,SSE,164,5.0,13.0,88,0.00,,,0.01,102,Wunderground v.1.15,2013-03-12 17:10:00,
2013-03-12 13:11:00,26.6,23.5,29.73,South,178,6.0,13.0,88,0.00,,,0.01,104,Wunderground v.1.15,2013-03-12 17:11:00,
2013-03-12 13:13:00,26.6,23.3,29.73,South,171,6.0,13.0,87,0.00,,,0.01,102,Wunderground v.1.15,2013-03-12 17:13:00,
2013-03-12 13:14:00,26.7,23.6,29.73,SSE,156,7.0,13.0,88,0.00,,,0.01,100,Wunderground v.1.15,2013-03-12 17:14:00,
2013-03-12 13:15:00,26.7,23.4,29.73,NNW,336,7.0,13.0,87,0.00,,,0.01,98,Wunderground v.1.15,2013-03-12 17:15:00,
2013-03-12 13:18:00,26.8,23.4,29.73,East,96,7.0,13.0,87,0.00,,,0.01,104,Wunderground v.1.15,2013-03-12 17:18:00,
2013-03-12 13:20:00,26.9,23.5,29.73,South,188,7.0,9.0,87,0.00,,,0.01,105,Wunderground v.1.15,2013-03-12 17:20:00,
2013-03-12 13:22:00,26.9,23.5,29.73,SSE,166,7.0,9.0,87,0.00,,,0.01,104,Wunderground v.1.15,2013-03-12 17:22:00,
2013-03-12 13:23:00,26.9,23.5,29.73,East,87,7.0,9.0,87,0.00,,,0.01,104,Wunderground v.1.15,2013-03-12 17:23:00,
2013-03-12 13:27:00,27.0,23.6,29.73,South,175,6.0,10.0,87,0.00,,,0.01,100,Wunderground v.1.15,2013-03-12 17:27:00,
2013-03-12 13:28:00,27.0,23.6,29.74,South,178,6.0,10.0,87,0.00,,,0.01,98,Wunderground v.1.15,2013-03-12 17:28:00,
2013-03-12 13:30:00,27.1,23.7,29.74,SSE,166,6.0,7.0,87,0.00,,,0.01,97,Wunderground v.1.15,2013-03-12 17:30:00,
2013-03-12 13:31:00,27.0,23.6,29.73,South,171,6.0,11.0,87,0.00,,,0.01,98,Wunderground v.1.15,2013-03-12 17:31:00,
2013-03-12 13:34:00,27.0,23.6,29.74,SSW,200,6.0,11.0,87,0.00,,,0.01,100,Wunderground v.1.15,2013-03-12 17:34:00,
2013-03-12 13:37:00,27.1,23.7,29.74,South,178,6.0,11.0,87,0.00,,,0.01,100,Wunderground v.1.15,2013-03-12 17:37:00,
2013-03-12 13:39:00,27.0,23.9,29.74,South,180,6.0,11.0,88,0.00,,,0.01,97,Wunderground v.1.15,2013-03-12 17:39:00,
2013-03-12 13:41:00,27.1,24.0,29.74,North,5,6.0,6.0,88,0.00,,,0.01,91,Wunderground v.1.15,2013-03-12 17:41:00,
2013-03-12 13:44:00,27.2,24.1,29.74,South,173,5.0,7.0,88,0.00,,,0.01,102,Wunderground v.1.15,2013-03-12 17:44:00,
2013-03-12 13:46:00,27.3,24.2,29.74,SSE,166,5.0,7.0,88,0.00,,,0.01,107,Wunderground v.1.15,2013-03-12 17:46:00,
2013-03-12 13:47:00,27.4,24.3,29.74,South,188,4.0,7.0,88,0.00,,,0.01,111,Wunderground v.1.15,2013-03-12 17:47:00,
2013-03-12 13:51:00,27.5,24.1,29.73,NNE,31,4.0,6.0,87,0.00,,,0.01,118,Wunderground v.1.15,2013-03-12 17:51:00,
2013-03-12 13:52:00,27.5,24.1,29.73,SSE,167,4.0,6.0,87,0.00,,,0.01,121,Wunderground v.1.15,2013-03-12 17:52:00,
2013-03-12 13:53:00,27.6,24.2,29.73,South,174,5.0,8.0,87,0.00,,,0.01,120,Wunderground v.1.15,2013-03-12 17:53:00,
2013-03-12 13:56:00,27.7,24.3,29.73,SSE,165,5.0,8.0,87,0.00,,,0.01,104,Wunderground v.1.15,2013-03-12 17:56:00,
2013-03-12 13:58:00,27.7,24.3,29.74,South,175,4.0,8.0,87,0.00,,,0.01,98,Wunderground v.1.15,2013-03-12 17:58:00,
2013-03-12 14:00:00,27.7,24.1,29.74,South,188,5.0,5.0,86,0.00,,,0.01,100,Wunderground v.1.15,2013-03-12 18:00:00,
2013-03-12 14:03:00,27.8,23.9,29.74,South,172,5.0,11.0,85,0.00,,,0.01,97,Wunderground v.1.15,2013-03-12 18:03:00,
2013-03-12 14:06:00,27.6,23.7,29.74,South,176,6.0,11.0,85,0.00,,,0.01,97,Wunderground v.1.15,2013-03-12 18:06:00,
2013-03-12 14:07:00,27.6,23.7,29.73,SE,140,6.0,11.0,85,0.00,,,0.01,97,Wunderground v.1.15,2013-03-12 18:07:00,
2013-03-12 14:08:00,27.6,23.7,29.74,ESE,121,7.0,11.0,85,0.00,,,0.01,102,Wunderground v.1.15,2013-03-12 18:08:00,
2013-03-12 14:11:00,27.5,23.6,29.74,NE,50,7.0,13.0,85,0.00,,,0.01,107,Wunderground v.1.15,2013-03-12 18:11:00,
2013-03-12 14:13:00,27.4,23.5,29.74,SW,215,6.0,13.0,85,0.00,,,0.01,109,Wunderground v.1.15,2013-03-12 18:13:00,
2013-03-12 14:16:00,27.4,23.8,29.74,South,176,4.0,13.0,86,0.00,,,0.01,107,Wunderground v.1.15,2013-03-12 18:16:00,
2013-03-12 14:18:00,27.4,23.8,29.74,South,191,4.0,13.0,86,0.00,,,0.01,97,Wunderground v.1.15,2013-03-12 18:18:00,
2013-03-12 14:22:00,27.4,23.5,29.73,South,181,4.0,7.0,85,0.00,,,0.01,98,Wunderground v.1.15,2013-03-12 18:22:00,
2013-03-12 14:24:00,27.4,23.5,29.74,SW,217,5.0,7.0,85,0.00,,,0.01,100,Wunderground v.1.15,2013-03-12 18:24:00,
2013-03-12 14:28:00,27.4,23.8,29.74,South,188,4.0,8.0,86,0.00,,,0.01,97,Wunderground v.1.15,2013-03-12 18:28:00,
2013-03-12 14:30:00,27.5,23.9,29.74,South,171,4.0,5.0,86,0.00,,,0.01,91,Wunderground v.1.15,2013-03-12 18:30:00,
2013-03-12 14:31:00,27.4,23.8,29.73,SSE,163,5.0,5.0,86,0.00,,,0.01,93,Wunderground v.1.15,2013-03-12 18:31:00,
2013-03-12 14:35:00,27.5,23.9,29.74,South,186,4.0,6.0,86,0.00,,,0.01,91,Wunderground v.1.15,2013-03-12 18:35:00,
2013-03-12 14:36:00,27.5,23.9,29.74,South,180,4.0,9.0,86,0.00,,,0.01,93,Wunderground v.1.15,2013-03-12 18:36:00,
2013-03-12 14:37:00,27.5,23.9,29.74,SE,140,5.0,9.0,86,0.00,,,0.01,93,Wunderground v.1.15,2013-03-12 18:37:00,
2013-03-12 14:38:00,27.6,24.0,29.74,South,171,5.0,9.0,86,0.00,,,0.01,93,Wunderground v.1.15,2013-03-12 18:38:00,
2013-03-12 14:43:00,27.5,23.9,29.73,South,178,5.0,10.0,86,0.00,,,0.01,91,Wunderground v.1.15,2013-03-12 18:43:00,
2013-03-12 14:47:00,27.5,23.6,29.73,SSE,154,5.0,10.0,85,0.00,,,0.01,90,Wunderground v.1.15,2013-03-12 18:47:00,
2013-03-12 14:48:00,27.5,23.6,29.73,South,178,5.0,10.0,85,0.00,,,0.01,93,Wunderground v.1.15,2013-03-12 18:48:00,
2013-03-12 14:51:00,27.5,23.6,29.73,South,182,5.0,5.0,85,0.00,,,0.01,81,Wunderground v.1.15,2013-03-12 18:51:00,
2013-03-12 14:54:00,27.6,23.7,29.73,South,186,5.0,8.0,85,0.00,,,0.01,79,Wunderground v.1.15,2013-03-12 18:54:00,
2013-03-12 14:56:00,27.6,24.0,29.73,South,181,5.0,8.0,86,0.00,,,0.01,90,Wunderground v.1.15,2013-03-12 18:56:00,
2013-03-12 14:57:00,27.6,24.0,29.73,SSE,167,5.0,8.0,86,0.00,,,0.01,91,Wunderground v.1.15,2013-03-12 18:57:00,
2013-03-12 15:00:00,27.6,24.0,29.74,South,174,5.0,6.0,86,0.00,,,0.01,81,Wunderground v.1.15,2013-03-12 19:00:00,
2013-03-12 15:03:00,27.8,24.2,29.74,South,172,5.0,6.0,86,0.00,,,0.01,70,Wunderground v.1.15,2013-03-12 19:03:00,
2013-03-12 15:04:00,27.8,24.2,29.74,SSW,211,5.0,6.0,86,0.00,,,0.01,65,Wunderground v.1.15,2013-03-12 19:04:00,
2013-03-12 15:05:00,27.8,24.2,29.74,SSW,203,5.0,6.0,86,0.00,,,0.01,62,Wunderground v.1.15,2013-03-12 19:05:00,
2013-03-12 15:06:00,27.8,24.2,29.74,South,178,5.0,9.0,86,0.00,,,0.01,63,Wunderground v.1.15,2013-03-12 19:06:00,
2013-03-12 15:10:00,27.6,23.7,29.74,South,174,6.0,7.0,85,0.00,,,0.01,69,Wunderground v.1.15,2013-03-12 19:10:00,
2013-03-12 15:12:00,27.5,23.6,29.74,South,173,7.0,12.0,85,0.00,,,0.01,72,Wunderground v.1.15,2013-03-12 19:12:00,
2013-03-12 15:14:00,27.4,23.5,29.74,South,172,8.0,14.0,85,0.00,,,0.01,83,Wunderground v.1.15,2013-03-12 19:14:00,
2013-03-12 15:16:00,27.3,23.4,29.74,SSE,167,8.0,14.0,85,0.00,,,0.01,91,Wunderground v.1.15,2013-03-12 19:16:00,
2013-03-12 15:18:00,27.2,23.3,29.74,South,187,8.0,14.0,85,0.00,,,0.01,102,Wunderground v.1.15,2013-03-12 19:18:00,
2013-03-12 15:22:00,27.3,23.4,29.74,South,174,8.0,8.0,85,0.00,,,0.01,98,Wunderground v.1.15,2013-03-12 19:22:00,
2013-03-12 15:23:00,27.3,23.4,29.74,South,178,7.0,8.0,85,0.00,,,0.01,97,Wunderground v.1.15,2013-03-12 19:23:00,
2013-03-12 15:24:00,27.4,23.5,29.74,South,182,7.0,8.0,85,0.00,,,0.01,91,Wunderground v.1.15,2013-03-12 19:24:00,
2013-03-12 15:29:00,27.3,23.1,29.74,SSW,208,5.0,8.0,84,0.00,,,0.01,114,Wunderground v.1.15,2013-03-12 19:29:00,
2013-03-12 15:31:00,27.3,23.1,29.74,South,177,6.0,12.0,84,0.00,,,0.01,116,Wunderground v.1.15,2013-03-12 19:31:00,
2013-03-12 15:33:00,27.4,23.2,29.74,South,178,6.0,12.0,84,0.00,,,0.01,111,Wunderground v.1.15,2013-03-12 19:33:00,
2013-03-12 15:36:00,27.5,23.3,29.74,SSE,161,6.0,12.0,84,0.00,,,0.01,95,Wunderground v.1.15,2013-03-12 19:36:00,
2013-03-12 15:37:00,27.6,23.4,29.74,South,184,6.0,12.0,84,0.00,,,0.01,90,Wunderground v.1.15,2013-03-12 19:37:00,
2013-03-12 15:38:00,27.5,23.3,29.74,South,169,6.0,13.0,84,0.00,,,0.01,84,Wunderground v.1.15,2013-03-12 19:38:00,
2013-03-12 15:43:00,27.6,23.4,29.74,SSW,209,6.0,7.0,84,0.00,,,0.01,141,Wunderground v.1.15,2013-03-12 19:43:00,
2013-03-12 15:44:00,27.5,23.3,29.74,South,187,7.0,9.0,84,0.00,,,0.01,139,Wunderground v.1.15,2013-03-12 19:44:00,
2013-03-12 15:47:00,27.4,23.2,29.74,SSW,204,7.0,11.0,84,0.00,,,0.01,144,Wunderground v.1.15,2013-03-12 19:47:00,
2013-03-12 15:48:00,27.3,23.4,29.74,South,183,7.0,11.0,85,0.00,,,0.01,144,Wunderground v.1.15,2013-03-12 19:48:00,
2013-03-12 15:50:00,27.3,23.4,29.74,SSW,203,6.0,6.0,85,0.00,,,0.01,149,Wunderground v.1.15,2013-03-12 19:50:00,
2013-03-12 15:52:00,27.2,23.3,29.75,SSW,197,6.0,8.0,85,0.00,,,0.01,153,Wunderground v.1.15,2013-03-12 19:52:00,
2013-03-12 15:53:00,27.2,23.3,29.75,SSW,205,6.0,8.0,85,0.00,,,0.01,148,Wunderground v.1.15,2013-03-12 19:53:00,
2013-03-12 15:55:00,27.1,23.2,29.75,South,187,6.0,10.0,85,0.00,,,0.01,135,Wunderground v.1.15,2013-03-12 19:55:00,
2013-03-12 15:58:00,27.0,23.1,29.75,SW,219,6.0,10.0,85,0.00,,,0.01,125,Wunderground v.1.15,2013-03-12 19:58:00,
2013-03-12 15:59:00,26.9,23.0,29.75,South,184,6.0,10.0,85,0.00,,,0.01,127,Wunderground v.1.15,2013-03-12 19:59:00,
2013-03-12 16:00:00,26.9,23.0,29.75,SSW,192,6.0,6.0,85,0.00,,,0.01,125,Wunderground v.1.15,2013-03-12 20:00:00,
2013-03-12 16:02:00,26.9,23.0,29.75,SSW,197,6.0,9.0,85,0.00,,,0.01,128,Wunderground v.1.15,2013-03-12 20:02:00,
2013-03-12 16:06:00,26.7,22.8,29.75,SSW,204,6.0,9.0,85,0.00,,,0.01,141,Wunderground v.1.15,2013-03-12 20:06:00,
2013-03-12 16:07:00,26.6,22.7,29.75,SSW,202,6.0,9.0,85,0.00,,,0.01,141,Wunderground v.1.15,2013-03-12 20:07:00,
2013-03-12 16:09:00,26.6,22.7,29.75,South,187,6.0,9.0,85,0.00,,,0.01,160,Wunderground v.1.15,2013-03-12 20:09:00,
2013-03-12 16:12:00,26.5,22.9,29.75,South,181,7.0,10.0,86,0.00,,,0.01,174,Wunderground v.1.15,2013-03-12 20:12:00,
2013-03-12 16:14:00,26.5,22.9,29.75,SSW,197,7.0,10.0,86,0.00,,,0.01,174,Wunderground v.1.15,2013-03-12 20:14:00,
2013-03-12 16:16:00,26.5,22.9,29.75,South,186,7.0,10.0,86,0.00,,,0.01,171,Wunderground v.1.15,2013-03-12 20:16:00,
2013-03-12 16:18:00,26.5,22.9,29.75,South,182,7.0,10.0,86,0.00,,,0.01,169,Wunderground v.1.15,2013-03-12 20:18:00,
2013-03-12 16:22:00,26.5,23.2,29.76,South,175,6.0,8.0,87,0.00,,,0.01,167,Wunderground v.1.15,2013-03-12 20:22:00,
2013-03-12 16:25:00,26.3,23.0,29.76,South,169,6.0,9.0,87,0.00,,,0.01,167,Wunderground v.1.15,2013-03-12 20:25:00,
2013-03-12 16:27:00,26.2,22.6,29.76,SSW,210,5.0,9.0,86,0.00,,,0.01,162,Wunderground v.1.15,2013-03-12 20:27:00,
2013-03-12 16:29:00,26.1,22.8,29.75,SW,222,5.0,9.0,87,0.00,,,0.01,167,Wunderground v.1.15,2013-03-12 20:29:00,
2013-03-12 16:33:00,26.0,22.7,29.76,SSW,199,5.0,6.0,87,0.00,,,0.01,176,Wunderground v.1.15,2013-03-12 20:33:00,
2013-03-12 16:34:00,26.0,22.7,29.76,South,179,5.0,6.0,87,0.00,,,0.01,174,Wunderground v.1.15,2013-03-12 20:34:00,
2013-03-12 16:40:00,26.1,23.0,29.76,SSW,194,4.0,8.0,88,0.00,,,0.01,134,Wunderground v.1.15,2013-03-12 20:40:00,
2013-03-12 16:41:00,26.1,23.0,29.76,SSW,202,4.0,8.0,88,0.00,,,0.01,130,Wunderground v.1.15,2013-03-12 20:41:00,
2013-03-12 16:45:00,26.0,22.9,29.76,SSW,208,4.0,8.0,88,0.00,,,0.01,127,Wunderground v.1.15,2013-03-12 20:45:00,
2013-03-12 16:46:00,25.9,22.8,29.76,SSW,209,4.0,8.0,88,0.00,,,0.01,123,Wunderground v.1.15,2013-03-12 20:46:00,
2013-03-12 16:50:00,25.8,22.7,29.76,WSW,238,5.0,5.0,88,0.00,,,0.01,114,Wunderground v.1.15,2013-03-12 20:50:00,
2013-03-12 16:51:00,25.8,23.0,29.76,South,188,5.0,5.0,89,0.00,,,0.01,113,Wunderground v.1.15,2013-03-12 20:51:00,
2013-03-12 16:56:00,25.7,22.9,29.77,SW,222,5.0,6.0,89,0.00,,,0.01,113,Wunderground v.1.15,2013-03-12 20:56:00,
2013-03-12 16:57:00,25.7,22.9,29.77,SSW,212,5.0,6.0,89,0.00,,,0.01,109,Wunderground v.1.15,2013-03-12 20:57:00,
2013-03-12 17:02:00,25.6,22.8,29.77,SSW,197,5.0,5.0,89,0.00,,,0.01,113,Wunderground v.1.15,2013-03-12 21:02:00,
2013-03-12 17:03:00,25.6,22.8,29.77,South,178,5.0,9.0,89,0.00,,,0.01,113,Wunderground v.1.15,2013-03-12 21:03:00,
2013-03-12 17:07:00,25.5,22.7,29.77,ESE,117,6.0,9.0,89,0.00,,,0.01,118,Wunderground v.1.15,2013-03-12 21:07:00,
2013-03-12 17:09:00,25.5,22.7,29.77,South,187,6.0,9.0,89,0.00,,,0.01,118,Wunderground v.1.15,2013-03-12 21:09:00,
2013-03-12 17:13:00,25.5,22.7,29.77,SSW,198,5.0,6.0,89,0.00,,,0.01,111,Wunderground v.1.15,2013-03-12 21:13:00,
2013-03-12 17:14:00,25.5,22.7,29.77,SSW,202,5.0,6.0,89,0.00,,,0.01,109,Wunderground v.1.15,2013-03-12 21:14:00,
2013-03-12 17:15:00,25.5,22.7,29.77,SW,223,5.0,6.0,89,0.00,,,0.01,113,Wunderground v.1.15,2013-03-12 21:15:00,
2013-03-12 17:16:00,25.5,22.7,29.77,SW,221,5.0,6.0,89,0.00,,,0.01,111,Wunderground v.1.15,2013-03-12 21:16:00,
2013-03-12 17:21:00,25.6,22.8,29.77,SSW,205,4.0,6.0,89,0.00,,,0.01,105,Wunderground v.1.15,2013-03-12 21:21:00,
2013-03-12 17:23:00,25.5,22.7,29.77,South,180,4.0,7.0,89,0.00,,,0.01,105,Wunderground v.1.15,2013-03-12 21:23:00,
2013-03-12 17:28:00,25.4,22.6,29.77,SSE,163,4.0,8.0,89,0.00,,,0.01,100,Wunderground v.1.15,2013-03-12 21:28:00,
2013-03-12 17:30:00,25.4,22.6,29.77,WSW,240,5.0,6.0,89,0.00,,,0.01,100,Wunderground v.1.15,2013-03-12 21:30:00,
2013-03-12 17:34:00,25.3,22.5,29.78,South,182,5.0,8.0,89,0.00,,,0.01,100,Wunderground v.1.15,2013-03-12 21:34:00,
2013-03-12 17:36:00,25.3,22.5,29.78,South,182,4.0,8.0,89,0.00,,,0.01,95,Wunderground v.1.15,2013-03-12 21:36:00,
2013-03-12 17:37:00,25.3,22.5,29.78,South,182,5.0,8.0,89,0.00,,,0.01,93,Wunderground v.1.15,2013-03-12 21:37:00,
2013-03-12 17:39:00,25.3,22.5,29.78,South,185,4.0,8.0,89,0.00,,,0.01,84,Wunderground v.1.15,2013-03-12 21:39:00,
2013-03-12 17:44:00,25.4,22.6,29.78,South,191,4.0,9.0,89,0.00,,,0.01,88,Wunderground v.1.15,2013-03-12 21:44:00,
2013-03-12 17:45:00,25.3,22.5,29.78,South,173,5.0,9.0,89,0.00,,,0.01,90,Wunderground v.1.15,2013-03-12 21:45:00,
2013-03-12 17:46:00,25.3,22.5,29.78,South,174,5.0,9.0,89,0.00,,,0.01,88,Wunderground v.1.15,2013-03-12 21:46:00,
2013-03-12 17:48:00,25.2,22.4,29.78,South,173,5.0,9.0,89,0.00,,,0.01,86,Wunderground v.1.15,2013-03-12 21:48:00,
2013-03-12 17:51:00,25.1,22.3,29.78,SSW,213,6.0,9.0,89,0.00,,,0.01,81,Wunderground v.1.15,2013-03-12 21:51:00,
2013-03-12 17:53:00,25.1,22.0,29.78,SW,215,7.0,9.0,88,0.00,,,0.01,77,Wunderground v.1.15,2013-03-12 21:53:00,
2013-03-12 17:56:00,24.9,21.8,29.78,South,170,6.0,9.0,88,0.00,,,0.01,84,Wunderground v.1.15,2013-03-12 21:56:00,
2013-03-12 18:00:00,24.8,21.8,29.78,SSW,208,6.0,6.0,88,0.00,,,0.01,83,Wunderground v.1.15,2013-03-12 22:00:00,
2013-03-12 18:01:00,24.8,21.8,29.78,SSW,192,6.0,6.0,88,0.00,,,0.01,83,Wunderground v.1.15,2013-03-12 22:01:00,
2013-03-12 18:02:00,24.7,21.7,29.79,SW,217,6.0,6.0,88,0.00,,,0.01,83,Wunderground v.1.15,2013-03-12 22:02:00,
2013-03-12 18:06:00,24.6,21.6,29.78,SSW,205,6.0,6.0,88,0.00,,,0.01,83,Wunderground v.1.15,2013-03-12 22:06:00,
2013-03-12 18:08:00,24.5,21.5,29.79,South,180,5.0,6.0,88,0.00,,,0.01,81,Wunderground v.1.15,2013-03-12 22:08:00,
2013-03-12 18:12:00,24.5,21.7,29.79,SW,215,5.0,6.0,89,0.00,,,0.01,79,Wunderground v.1.15,2013-03-12 22:12:00,
2013-03-12 18:13:00,24.5,21.7,29.79,South,187,5.0,6.0,89,0.00,,,0.01,77,Wunderground v.1.15,2013-03-12 22:13:00,
2013-03-12 18:16:00,24.6,21.8,29.78,SSE,159,5.0,8.0,89,0.00,,,0.01,76,Wunderground v.1.15,2013-03-12 22:16:00,
2013-03-12 18:19:00,24.7,21.9,29.78,South,190,4.0,8.0,89,0.00,,,0.01,74,Wunderground v.1.15,2013-03-12 22:19:00,
2013-03-12 18:20:00,24.7,21.9,29.78,South,190,4.0,4.0,89,0.00,,,0.01,72,Wunderground v.1.15,2013-03-12 22:20:00,
2013-03-12 18:21:00,24.8,22.3,29.78,SSE,153,4.0,10.0,90,0.00,,,0.01,70,Wunderground v.1.15,2013-03-12 22:21:00,
2013-03-12 18:24:00,24.9,22.4,29.78,South,182,4.0,10.0,90,0.00,,,0.01,70,Wunderground v.1.15,2013-03-12 22:24:00,
2013-03-12 18:25:00,24.9,22.4,29.78,SSW,197,4.0,10.0,90,0.00,,,0.01,67,Wunderground v.1.15,2013-03-12 22:25:00,
2013-03-12 18:35:00,24.7,21.9,29.79,South,182,4.0,4.0,89,0.00,,,0.01,54,Wunderground v.1.15,2013-03-12 22:35:00,
2013-03-12 18:36:00,24.7,21.9,29.79,South,183,4.0,7.0,89,0.00,,,0.01,51,Wunderground v.1.15,2013-03-12 22:36:00,
2013-03-12 18:37:00,24.7,21.9,29.79,SSW,211,4.0,7.0,89,0.00,,,0.01,51,Wunderground v.1.15,2013-03-12 22:37:00,
2013-03-12 18:38:00,24.7,21.9,29.79,SSW,207,4.0,7.0,89,0.00,,,0.01,47,Wunderground v.1.15,2013-03-12 22:38:00,
2013-03-12 18:41:00,24.6,21.8,29.79,South,182,3.0,7.0,89,0.00,,,0.01,49,Wunderground v.1.15,2013-03-12 22:41:00,
2013-03-12 18:44:00,24.6,22.1,29.79,SSW,212,3.0,7.0,90,0.00,,,0.01,47,Wunderground v.1.15,2013-03-12 22:44:00,
2013-03-12 18:47:00,24.5,21.7,29.79,SSW,210,4.0,10.0,89,0.00,,,0.01,42,Wunderground v.1.15,2013-03-12 22:47:00,
2013-03-12 18:49:00,24.4,21.6,29.79,South,176,3.0,10.0,89,0.00,,,0.01,40,Wunderground v.1.15,2013-03-12 22:49:00,
2013-03-12 18:50:00,24.4,21.4,29.79,South,176,4.0,10.0,88,0.00,,,0.01,39,Wunderground v.1.15,2013-03-12 22:50:00,
2013-03-12 18:55:00,24.4,21.4,29.79,ESE,121,5.0,7.0,88,0.00,,,0.01,30,Wunderground v.1.15,2013-03-12 22:55:00,
2013-03-12 18:56:00,24.4,21.4,29.79,South,177,6.0,7.0,88,0.00,,,0.01,30,Wunderground v.1.15,2013-03-12 22:56:00,
2013-03-12 18:57:00,24.4,21.4,29.79,SSW,205,6.0,7.0,88,0.00,,,0.01,28,Wunderground v.1.15,2013-03-12 22:57:00,
2013-03-12 19:00:00,24.4,21.4,29.80,SSW,192,6.0,6.0,88,0.00,,,0.01,25,Wunderground v.1.15,2013-03-12 23:00:00,
2013-03-12 19:01:00,24.4,21.4,29.80,South,186,7.0,7.0,88,0.00,,,0.01,25,Wunderground v.1.15,2013-03-12 23:01:00,
2013-03-12 19:05:00,24.4,21.4,29.80,South,178,6.0,7.0,88,0.00,,,0.01,23,Wunderground v.1.15,2013-03-12 23:05:00,
2013-03-12 19:06:00,24.4,21.4,29.80,South,178,6.0,7.0,88,0.00,,,0.01,23,Wunderground v.1.15,2013-03-12 23:06:00,
2013-03-12 19:07:00,24.4,21.4,29.80,SSW,193,7.0,7.0,88,0.00,,,0.01,18,Wunderground v.1.15,2013-03-12 23:07:00,
2013-03-12 19:09:00,24.4,21.6,29.80,South,169,7.0,7.0,89,0.00,,,0.01,16,Wunderground v.1.15,2013-03-12 23:09:00,
2013-03-12 19:10:00,24.5,21.7,29.80,South,184,6.0,6.0,89,0.00,,,0.01,16,Wunderground v.1.15,2013-03-12 23:10:00,
2013-03-12 19:12:00,24.5,21.7,29.80,SSW,193,6.0,6.0,89,0.00,,,0.01,14,Wunderground v.1.15,2013-03-12 23:12:00,
2013-03-12 19:17:00,24.3,21.3,29.80,South,179,5.0,8.0,88,0.00,,,0.01,12,Wunderground v.1.15,2013-03-12 23:17:00,
2013-03-12 19:18:00,24.2,21.2,29.80,SSW,194,5.0,8.0,88,0.00,,,0.01,11,Wunderground v.1.15,2013-03-12 23:18:00,
2013-03-12 19:19:00,24.2,21.2,29.80,South,178,5.0,8.0,88,0.00,,,0.01,11,Wunderground v.1.15,2013-03-12 23:19:00,
2013-03-12 19:21:00,24.2,21.4,29.80,South,183,5.0,6.0,89,0.00,,,0.01,9,Wunderground v.1.15,2013-03-12 23:21:00,
2013-03-12 19:23:00,24.2,21.4,29.81,South,173,6.0,9.0,89,0.00,,,0.01,9,Wunderground v.1.15,2013-03-12 23:23:00,
2013-03-12 19:27:00,24.0,21.2,29.81,South,169,6.0,11.0,89,0.00,,,0.01,5,Wunderground v.1.15,2013-03-12 23:27:00,
2013-03-12 19:30:00,24.0,21.2,29.81,SSE,168,6.0,8.0,89,0.00,,,0.01,5,Wunderground v.1.15,2013-03-12 23:30:00,
2013-03-12 19:32:00,24.0,21.2,29.81,South,171,6.0,11.0,89,0.00,,,0.01,0,Wunderground v.1.15,2013-03-12 23:32:00,
2013-03-12 19:34:00,24.0,21.2,29.81,SSE,168,6.0,11.0,89,0.00,,,0.01,0,Wunderground v.1.15,2013-03-12 23:34:00,
2013-03-12 19:39:00,24.0,21.2,29.81,ESE,117,5.0,11.0,89,0.00,,,0.01,0,Wunderground v.1.15,2013-03-12 23:39:00,
2013-03-12 19:40:00,24.0,21.2,29.81,South,175,6.0,6.0,89,0.00,,,0.01,0,Wunderground v.1.15,2013-03-12 23:40:00,
2013-03-12 19:41:00,23.9,21.1,29.81,SE,132,6.0,11.0,89,0.00,,,0.01,0,Wunderground v.1.15,2013-03-12 23:41:00,
2013-03-12 19:44:00,23.9,21.1,29.81,South,175,5.0,11.0,89,0.00,,,0.01,0,Wunderground v.1.15,2013-03-12 23:44:00,
2013-03-12 19:47:00,23.9,21.1,29.81,South,172,5.0,11.0,89,0.00,,,0.01,0,Wunderground v.1.15,2013-03-12 23:47:00,
2013-03-12 19:48:00,23.9,21.4,29.82,SW,222,4.0,11.0,90,0.00,,,0.01,0,Wunderground v.1.15,2013-03-12 23:48:00,
2013-03-12 19:49:00,23.9,21.4,29.81,SSW,196,4.0,11.0,90,0.00,,,0.01,0,Wunderground v.1.15,2013-03-12 23:49:00,
2013-03-12 19:51:00,23.9,21.1,29.81,NNE,32,4.0,11.0,89,0.00,,,0.01,0,Wunderground v.1.15,2013-03-12 23:51:00,
2013-03-12 19:53:00,23.8,21.3,29.81,East,88,4.0,11.0,90,0.00,,,0.01,0,Wunderground v.1.15,2013-03-12 23:53:00,
2013-03-12 19:56:00,23.8,21.3,29.81,ESE,122,4.0,11.0,90,0.00,,,0.01,0,Wunderground v.1.15,2013-03-12 23:56:00,
2013-03-12 19:58:00,23.7,21.2,29.81,South,175,4.0,11.0,90,0.00,,,0.01,0,Wunderground v.1.15,2013-03-12 23:58:00,
2013-03-12 19:59:00,23.7,21.2,29.82,ESE,107,4.0,11.0,90,0.00,,,0.01,0,Wunderground v.1.15,2013-03-12 23:59:00,
2013-03-12 20:02:00,23.6,21.1,29.82,South,182,4.0,11.0,90,0.00,,,0.01,0,Wunderground v.1.15,2013-03-13 00:02:00,
2013-03-12 20:03:00,23.6,21.1,29.82,South,186,4.0,11.0,90,0.00,,,0.01,0,Wunderground v.1.15,2013-03-13 00:03:00,
2013-03-12 20:06:00,23.6,21.1,29.82,South,175,4.0,11.0,90,0.00,,,0.01,0,Wunderground v.1.15,2013-03-13 00:06:00,
2013-03-12 20:07:00,23.6,21.1,29.82,South,182,5.0,11.0,90,0.00,,,0.01,0,Wunderground v.1.15,2013-03-13 00:07:00,
2013-03-12 20:13:00,23.6,21.1,29.82,South,169,4.0,11.0,90,0.00,,,0.01,0,Wunderground v.1.15,2013-03-13 00:13:00,
2013-03-12 20:14:00,23.5,21.0,29.82,South,177,4.0,11.0,90,0.00,,,0.01,0,Wunderground v.1.15,2013-03-13 00:14:00,
2013-03-12 20:16:00,23.5,21.0,29.82,SSE,168,5.0,11.0,90,0.00,,,0.01,0,Wunderground v.1.15,2013-03-13 00:16:00,
2013-03-12 20:21:00,23.4,20.9,29.82,South,170,5.0,11.0,90,0.00,,,0.01,0,Wunderground v.1.15,2013-03-13 00:21:00,
2013-03-12 20:23:00,23.4,20.9,29.82,South,189,5.0,11.0,90,0.00,,,0.01,0,Wunderground v.1.15,2013-03-13 00:23:00,
2013-03-12 20:24:00,23.4,20.9,29.82,SSW,203,5.0,11.0,90,0.00,,,0.01,0,Wunderground v.1.15,2013-03-13 00:24:00,
2013-03-12 20:27:00,23.3,20.8,29.82,SSE,162,4.0,11.0,90,0.00,,,0.01,0,Wunderground v.1.15,2013-03-13 00:27:00,
2013-03-12 20:28:00,23.3,20.8,29.82,South,170,5.0,11.0,90,0.00,,,0.01,0,Wunderground v.1.15,2013-03-13 00:28:00,
2013-03-12 20:30:00,23.3,20.8,29.82,South,173,5.0,11.0,90,0.00,,,0.01,0,Wunderground v.1.15,2013-03-13 00:30:00,
2013-03-12 20:33:00,23.3,20.8,29.82,South,186,5.0,11.0,90,0.00,,,0.01,0,Wunderground v.1.15,2013-03-13 00:33:00,
2013-03-12 20:36:00,23.3,20.8,29.82,NE,40,5.0,11.0,90,0.00,,,0.01,0,Wunderground v.1.15,2013-03-13 00:36:00,
2013-03-12 20:40:00,23.3,20.8,29.83,South,189,5.0,5.0,90,0.00,,,0.01,0,Wunderground v.1.15,2013-03-13 00:40:00,
2013-03-12 20:42:00,23.3,20.8,29.82,West,265,4.0,11.0,90,0.00,,,0.01,0,Wunderground v.1.15,2013-03-13 00:42:00,
2013-03-12 20:44:00,23.3,20.8,29.83,South,175,4.0,11.0,90,0.00,,,0.01,0,Wunderground v.1.15,2013-03-13 00:44:00,
2013-03-12 20:46:00,23.3,20.8,29.83,South,172,4.0,11.0,90,0.00,,,0.01,0,Wunderground v.1.15,2013-03-13 00:46:00,
2013-03-12 20:48:00,23.3,20.8,29.82,South,175,4.0,11.0,90,0.00,,,0.01,0,Wunderground v.1.15,2013-03-13 00:48:00,
2013-03-12 20:52:00,23.3,20.8,29.82,South,179,4.0,11.0,90,0.00,,,0.01,0,Wunderground v.1.15,2013-03-13 00:52:00,
2013-03-12 20:53:00,23.2,20.7,29.83,SE,127,4.0,11.0,90,0.00,,,0.01,0,Wunderground v.1.15,2013-03-13 00:53:00,
2013-03-12 20:55:00,23.3,20.8,29.83,South,175,4.0,11.0,90,0.00,,,0.01,0,Wunderground v.1.15,2013-03-13 00:55:00,
2013-03-12 20:59:00,23.1,20.6,29.83,SSW,202,4.0,11.0,90,0.00,,,0.01,0,Wunderground v.1.15,2013-03-13 00:59:00,
2013-03-12 21:00:00,23.1,20.6,29.83,SSE,160,3.0,11.0,90,0.00,,,0.01,0,Wunderground v.1.15,2013-03-13 01:00:00,
2013-03-12 21:02:00,23.2,20.7,29.83,SSE,163,3.0,11.0,90,0.00,,,0.01,0,Wunderground v.1.15,2013-03-13 01:02:00,
2013-03-12 21:05:00,23.1,20.6,29.83,ESE,115,3.0,11.0,90,0.00,,,0.01,0,Wunderground v.1.15,2013-03-13 01:05:00,
2013-03-12 21:07:00,23.1,20.6,29.83,South,173,3.0,11.0,90,0.00,,,0.01,0,Wunderground v.1.15,2013-03-13 01:07:00,
2013-03-12 21:12:00,23.1,20.6,29.83,South,183,3.0,11.0,90,0.00,,,0.01,0,Wunderground v.1.15,2013-03-13 01:12:00,
2013-03-12 21:13:00,23.1,20.6,29.83,South,171,3.0,11.0,90,0.00,,,0.01,0,Wunderground v.1.15,2013-03-13 01:13:00,
2013-03-12 21:14:00,23.1,20.6,29.83,South,175,3.0,11.0,90,0.00,,,0.01,0,Wunderground v.1.15,2013-03-13 01:14:00,
2013-03-12 21:19:00,23.0,20.2,29.83,South,169,4.0,11.0,89,0.00,,,0.01,0,Wunderground v.1.15,2013-03-13 01:19:00,
2013-03-12 21:21:00,22.9,20.1,29.83,SSE,162,4.0,7.0,89,0.00,,,0.01,0,Wunderground v.1.15,2013-03-13 01:21:00,
2013-03-12 21:24:00,22.9,20.1,29.83,SW,219,3.0,11.0,89,0.00,,,0.01,0,Wunderground v.1.15,2013-03-13 01:24:00,
2013-03-12 21:26:00,22.8,20.0,29.83,SSE,165,3.0,11.0,89,0.00,,,0.01,0,Wunderground v.1.15,2013-03-13 01:26:00,
2013-03-12 21:28:00,22.8,20.0,29.83,SSE,168,2.0,11.0,89,0.00,,,0.01,0,Wunderground v.1.15,2013-03-13 01:28:00,
2013-03-12 21:29:00,22.8,20.0,29.83,ESE,121,2.0,11.0,89,0.00,,,0.01,0,Wunderground v.1.15,2013-03-13 01:29:00,
2013-03-12 21:30:00,22.8,20.0,29.83,SSE,150,2.0,11.0,89,0.00,,,0.01,0,Wunderground v.1.15,2013-03-13 01:30:00,
2013-03-12 21:35:00,22.8,20.0,29.83,South,176,2.0,11.0,89,0.00,,,0.01,0,Wunderground v.1.15,2013-03-13 01:35:00,
2013-03-12 21:36:00,22.9,20.1,29.83,South,175,2.0,11.0,89,0.00,,,0.01,0,Wunderground v.1.15,2013-03-13 01:36:00,
2013-03-12 21:39:00,22.9,20.1,29.83,South,185,3.0,11.0,89,0.00,,,0.01,0,Wunderground v.1.15,2013-03-13 01:39:00,
2013-03-12 21:41:00,22.9,20.1,29.83,SSE,167,2.0,11.0,89,0.00,,,0.01,0,Wunderground v.1.15,2013-03-13 01:41:00,
2013-03-12 21:42:00,22.9,20.1,29.83,WSW,254,2.0,11.0,89,0.00,,,0.01,0,Wunderground v.1.15,2013-03-13 01:42:00,
2013-03-12 21:44:00,22.9,20.1,29.83,South,187,2.0,11.0,89,0.00,,,0.01,0,Wunderground v.1.15,2013-03-13 01:44:00,
2013-03-12 21:47:00,22.9,20.1,29.83,South,169,2.0,11.0,89,0.00,,,0.01,0,Wunderground v.1.15,2013-03-13 01:47:00,
2013-03-12 21:50:00,22.8,20.0,29.83,South,184,3.0,3.0,89,0.00,,,0.01,0,Wunderground v.1.15,2013-03-13 01:50:00,
2013-03-12 21:52:00,22.8,20.0,29.84,SSE,168,2.0,11.0,89,0.00,,,0.01,0,Wunderground v.1.15,2013-03-13 01:52:00,
2013-03-12 21:55:00,22.7,20.2,29.84,South,170,2.0,11.0,90,0.00,,,0.01,0,Wunderground v.1.15,2013-03-13 01:55:00,
2013-03-12 21:58:00,22.7,20.2,29.84,SSE,167,2.0,11.0,90,0.00,,,0.01,0,Wunderground v.1.15,2013-03-13 01:58:00,
2013-03-12 21:59:00,22.7,20.2,29.84,SSE,165,2.0,11.0,90,0.00,,,0.01,0,Wunderground v.1.15,2013-03-13 01:59:00,
2013-03-12 22:03:00,22.7,20.2,29.84,South,172,3.0,11.0,90,0.00,,,0.01,0,Wunderground v.1.15,2013-03-13 02:03:00,
2013-03-12 22:06:00,22.7,20.2,29.84,SSE,153,3.0,11.0,90,0.00,,,0.01,0,Wunderground v.1.15,2013-03-13 02:06:00,
2013-03-12 22:07:00,22.7,20.2,29.84,South,190,2.0,11.0,90,0.00,,,0.01,0,Wunderground v.1.15,2013-03-13 02:07:00,
2013-03-12 22:09:00,22.6,20.1,29.83,SSE,154,2.0,11.0,90,0.00,,,0.01,0,Wunderground v.1.15,2013-03-13 02:09:00,
2013-03-12 22:12:00,22.6,20.1,29.84,South,169,2.0,11.0,90,0.00,,,0.01,0,Wunderground v.1.15,2013-03-13 02:12:00,
2013-03-12 22:13:00,22.6,20.1,29.84,SSE,164,1.0,11.0,90,0.00,,,0.01,0,Wunderground v.1.15,2013-03-13 02:13:00,
2013-03-12 22:14:00,22.6,20.1,29.84,SSE,159,2.0,11.0,90,0.00,,,0.01,0,Wunderground v.1.15,2013-03-13 02:14:00,
2013-03-12 22:19:00,22.5,20.0,29.84,SSE,166,2.0,11.0,90,0.00,,,0.01,0,Wunderground v.1.15,2013-03-13 02:19:00,
2013-03-12 22:21:00,22.5,20.0,29.84,SSE,167,2.0,5.0,90,0.00,,,0.01,0,Wunderground v.1.15,2013-03-13 02:21:00,
2013-03-12 22:22:00,22.5,20.0,29.84,South,176,3.0,11.0,90,0.00,,,0.01,0,Wunderground v.1.15,2013-03-13 02:22:00,
2013-03-12 22:23:00,22.5,20.3,29.84,SSE,166,3.0,11.0,91,0.00,,,0.01,0,Wunderground v.1.15,2013-03-13 02:23:00,
2013-03-12 22:27:00,22.4,19.9,29.84,South,171,3.0,11.0,90,0.00,,,0.01,0,Wunderground v.1.15,2013-03-13 02:27:00,
2013-03-12 22:29:00,22.4,19.9,29.84,South,181,3.0,11.0,90,0.00,,,0.01,0,Wunderground v.1.15,2013-03-13 02:29:00,
2013-03-12 22:32:00,22.4,19.9,29.84,SSE,161,2.0,11.0,90,0.00,,,0.01,0,Wunderground v.1.15,2013-03-13 02:32:00,
2013-03-12 22:33:00,22.4,20.2,29.84,South,182,2.0,11.0,91,0.00,,,0.01,0,Wunderground v.1.15,2013-03-13 02:33:00,
2013-03-12 22:37:00,22.4,20.2,29.84,SSE,149,2.0,11.0,91,0.00,,,0.01,0,Wunderground v.1.15,2013-03-13 02:37:00,
2013-03-12 22:39:00,22.4,20.2,29.84,SSE,164,2.0,11.0,91,0.00,,,0.01,0,Wunderground v.1.15,2013-03-13 02:39:00,
2013-03-12 22:42:00,22.4,20.2,29.84,SSW,201,2.0,11.0,91,0.00,,,0.01,0,Wunderground v.1.15,2013-03-13 02:42:00,
2013-03-12 22:43:00,22.4,20.2,29.84,SSW,200,1.0,11.0,91,0.00,,,0.01,0,Wunderground v.1.15,2013-03-13 02:43:00,
2013-03-12 22:46:00,22.3,20.1,29.84,SSW,200,0.0,11.0,91,0.00,,,0.01,0,Wunderground v.1.15,2013-03-13 02:46:00,
2013-03-12 22:47:00,22.3,20.1,29.84,SSE,168,0.0,11.0,91,0.00,,,0.01,0,Wunderground v.1.15,2013-03-13 02:47:00,
2013-03-12 22:51:00,22.3,20.1,29.84,SSE,168,0.0,11.0,91,0.00,,,0.01,0,Wunderground v.1.15,2013-03-13 02:51:00,
2013-03-12 22:52:00,22.3,20.1,29.84,SSE,167,0.0,11.0,91,0.00,,,0.01,0,Wunderground v.1.15,2013-03-13 02:52:00,
2013-03-12 22:53:00,22.2,20.0,29.84,SSE,149,0.0,11.0,91,0.00,,,0.01,0,Wunderground v.1.15,2013-03-13 02:53:00,
2013-03-12 22:55:00,22.3,20.1,29.84,SSE,157,0.0,11.0,91,0.00,,,0.01,0,Wunderground v.1.15,2013-03-13 02:55:00,
2013-03-12 22:57:00,22.3,20.3,29.84,South,171,0.0,11.0,92,0.00,,,0.01,0,Wunderground v.1.15,2013-03-13 02:57:00,
2013-03-12 22:58:00,22.3,20.3,29.84,NE,38,0.0,11.0,92,0.00,,,0.01,0,Wunderground v.1.15,2013-03-13 02:58:00,
2013-03-12 23:01:00,22.3,20.3,29.84,WNW,291,1.0,11.0,92,0.00,,,0.01,0,Wunderground v.1.15,2013-03-13 03:01:00,
2013-03-12 23:02:00,22.3,20.3,29.84,SSE,167,1.0,11.0,92,0.00,,,0.01,0,Wunderground v.1.15,2013-03-13 03:02:00,
2013-03-12 23:03:00,22.3,20.3,29.84,North,5,1.0,11.0,92,0.00,,,0.01,0,Wunderground v.1.15,2013-03-13 03:03:00,
2013-03-12 23:07:00,22.3,20.3,29.83,SSE,167,1.0,11.0,92,0.00,,,0.01,0,Wunderground v.1.15,2013-03-13 03:07:00,
2013-03-12 23:08:00,22.3,20.3,29.83,NNE,26,1.0,11.0,92,0.00,,,0.01,0,Wunderground v.1.15,2013-03-13 03:08:00,
2013-03-12 23:09:00,22.3,20.3,29.84,NE,38,1.0,11.0,92,0.00,,,0.01,0,Wunderground v.1.15,2013-03-13 03:09:00,
2013-03-12 23:15:00,22.1,20.1,29.84,WSW,239,2.0,11.0,92,0.00,,,0.01,0,Wunderground v.1.15,2013-03-13 03:15:00,
2013-03-12 23:16:00,22.1,20.1,29.84,South,173,2.0,11.0,92,0.00,,,0.01,0,Wunderground v.1.15,2013-03-13 03:16:00,
2013-03-12 23:18:00,22.1,20.1,29.84,SSE,150,2.0,11.0,92,0.00,,,0.01,0,Wunderground v.1.15,2013-03-13 03:18:00,
2013-03-12 23:21:00,22.0,20.0,29.84,East,80,2.0,11.0,92,0.00,,,0.01,0,Wunderground v.1.15,2013-03-13 03:21:00,
2013-03-12 23:23:00,22.0,20.0,29.84,SSE,168,2.0,11.0,92,0.00,,,0.01,0,Wunderground v.1.15,2013-03-13 03:23:00,
2013-03-12 23:24:00,22.0,20.0,29.83,SSE,151,2.0,11.0,92,0.00,,,0.01,0,Wunderground v.1.15,2013-03-13 03:24:00,
2013-03-12 23:27:00,21.9,19.9,29.83,NNW,344,1.0,11.0,92,0.00,,,0.01,0,Wunderground v.1.15,2013-03-13 03:27:00,
2013-03-12 23:28:00,21.9,19.9,29.83,SSW,206,1.0,11.0,92,0.00,,,0.01,0,Wunderground v.1.15,2013-03-13 03:28:00,
2013-03-12 23:29:00,21.9,19.9,29.83,NNW,344,1.0,11.0,92,0.00,,,0.01,0,Wunderground v.1.15,2013-03-13 03:29:00,
2013-03-12 23:30:00,21.8,19.8,29.83,North,5,1.0,1.0,92,0.00,,,0.01,0,Wunderground v.1.15,2013-03-13 03:30:00,
2013-03-12 23:35:00,21.8,19.8,29.83,SSW,212,1.0,11.0,92,0.00,,,0.01,0,Wunderground v.1.15,2013-03-13 03:35:00,
2013-03-12 23:36:00,21.7,19.7,29.83,ESE,108,1.0,11.0,92,0.00,,,0.01,0,Wunderground v.1.15,2013-03-13 03:36:00,
2013-03-12 23:37:00,21.7,19.7,29.83,South,169,1.0,11.0,92,0.00,,,0.01,0,Wunderground v.1.15,2013-03-13 03:37:00,
2013-03-12 23:38:00,21.7,19.7,29.84,SSE,163,1.0,11.0,92,0.00,,,0.01,0,Wunderground v.1.15,2013-03-13 03:38:00,
2013-03-12 23:41:00,21.7,19.7,29.84,SSE,167,1.0,11.0,92,0.00,,,0.01,0,Wunderground v.1.15,2013-03-13 03:41:00,
2013-03-12 23:43:00,21.7,19.7,29.84,SSE,165,1.0,11.0,92,0.00,,,0.01,0,Wunderground v.1.15,2013-03-13 03:43:00,
2013-03-12 23:44:00,21.7,19.7,29.83,SSE,159,1.0,11.0,92,0.00,,,0.01,0,Wunderground v.1.15,2013-03-13 03:44:00,
2013-03-12 23:45:00,21.7,19.7,29.83,South,179,1.0,11.0,92,0.00,,,0.01,0,Wunderground v.1.15,2013-03-13 03:45:00,
2013-03-12 23:49:00,21.6,19.6,29.83,South,183,1.0,11.0,92,0.00,,,0.01,0,Wunderground v.1.15,2013-03-13 03:49:00,
2013-03-12 23:50:00,21.6,19.6,29.83,South,173,1.0,1.0,92,0.00,,,0.01,0,Wunderground v.1.15,2013-03-13 03:50:00,
2013-03-12 23:51:00,21.7,19.7,29.83,South,173,1.0,11.0,92,0.00,,,0.01,0,Wunderground v.1.15,2013-03-13 03:51:00,
2013-03-12 23:57:00,21.7,19.7,29.83,South,173,1.0,11.0,92,0.00,,,0.01,0,Wunderground v.1.15,2013-03-13 03:57:00,
2013-03-12 23:58:00,21.7,19.7,29.83,South,174,0.0,11.0,92,0.00,,,0.01,0,Wunderground v.1.15,2013-03-13 03:58:00,